M I D A S
Marine Information and Data Acquisition System
Tripno 1994 of the Zeeleeuw from 2010-09-08 07:20:12 to 2010-09-09 05:43:15
Back to CruiseResearch ActivitiesStationsMapUnderway DataData graphs

EquipmentUnitsComment
TimeDGPSUTC
LatitudeDGPSDM.mWGS84
LongitudeDGPSDM.mWGS84
TemperatureSBE03/SBE38deg celciusITS90
ConductivitySBE21S/mITS90
SalinitySBE21 Practical Salinity Units
ChlorophylAChelsea fluorimeterg/lCalibrated in Aceton
Missing or incorrect values are displayed as -999
Sea surface data collected by the RV Zeeleeuw from 2010-09-08 06:47:21 to 2010-09-09 10:43:14
                                                                                    Next 1000 lines
Time Latitude Longitude Temperature Conductivity Salinity ChlorophylA
2010-09-08 06:47:31 51°13.664 2°55.96 20.7017 0.075983 0.407655 -0.721976
2010-09-08 06:47:36 51°13.664 2°55.96 20.7014 0.075983 0.407655 -0.721976
2010-09-08 06:47:40 51°13.664 2°55.96 20.7003 0.075879 0.407078 -0.721976
2010-09-08 06:47:46 51°13.664 2°55.96 20.7006 0.075879 0.407084 -0.721976
2010-09-08 06:47:51 51°13.664 2°55.96 20.7004 0.075879 0.407091 -0.7568
2010-09-08 06:47:56 51°13.664 2°55.96 20.7005 0.075879 0.407084 -0.7568
2010-09-08 06:48:01 51°13.664 2°55.96 20.7001 0.075983 0.407668 -0.7568
2010-09-08 06:48:06 51°13.664 2°55.96 20.6997 0.075983 0.407668 -0.7568
2010-09-08 06:48:11 51°13.664 2°55.96 20.7012 0.075983 0.407674 -0.721976
2010-09-08 06:48:16 51°13.664 2°55.96 20.703 0.075879 0.407097 -0.7568
2010-09-08 06:48:20 51°13.663 2°55.96 20.7037 0.075879 0.407097 -0.7568
2010-09-08 06:48:26 51°13.664 2°55.96 20.7057 0.075879 0.407103 -0.721976
2010-09-08 06:48:31 51°13.664 2°55.96 20.7081 0.075879 0.407097 -0.721976
2010-09-08 06:48:36 51°13.664 2°55.961 20.709 0.075879 0.407097 -0.721976
2010-09-08 06:48:41 51°13.664 2°55.961 20.7065 0.075879 0.407103 -0.7568
2010-09-08 06:48:46 51°13.664 2°55.96 20.705 0.075879 0.407103 -0.721976
2010-09-08 06:48:51 51°13.664 2°55.96 20.7048 0.075983 0.407681 -0.7568
2010-09-08 06:48:56 51°13.664 2°55.96 20.7033 0.075983 0.407681 -0.791624
2010-09-08 06:49:01 51°13.664 2°55.96 20.7019 0.075879 0.407116 -0.721976
2010-09-08 06:49:06 51°13.663 2°55.961 20.7023 0.075879 0.407116 -0.721976
2010-09-08 06:49:11 51°13.663 2°55.961 20.7034 0.075983 0.407687 -0.721976
2010-09-08 06:49:16 51°13.663 2°55.961 20.7029 0.075983 0.407687 -0.721976
2010-09-08 06:49:21 51°13.663 2°55.961 20.7014 0.075983 0.407694 -0.7568
2010-09-08 06:49:26 51°13.663 2°55.96 20.7005 0.075983 0.407694 -0.791624
2010-09-08 06:49:31 51°13.663 2°55.96 20.7005 0.075983 0.4077 -0.791624
2010-09-08 06:49:36 51°13.663 2°55.961 20.6994 0.075983 0.4077 -0.791624
2010-09-08 06:49:41 51°13.663 2°55.961 20.6976 0.075879 0.40711 -0.7568
2010-09-08 06:49:46 51°13.663 2°55.961 20.6993 0.075879 0.407103 -0.7568
2010-09-08 06:49:51 51°13.664 2°55.961 20.6999 0.075983 0.407674 -0.7568
2010-09-08 06:49:56 51°13.663 2°55.961 20.7013 0.075983 0.407674 -0.7568
2010-09-08 06:50:01 51°13.664 2°55.961 20.7021 0.075879 0.40711 -0.791624
2010-09-08 06:50:06 51°13.664 2°55.961 20.7054 0.075879 0.40711 -0.791624
2010-09-08 06:50:11 51°13.664 2°55.961 20.7068 0.075983 0.407694 -0.721976
2010-09-08 06:50:16 51°13.663 2°55.961 20.7087 0.075879 0.407123 -0.721976
2010-09-08 06:50:20 51°13.664 2°55.961 20.7099 0.075983 0.407706 -0.721976
2010-09-08 06:50:26 51°13.664 2°55.961 20.7111 0.075983 0.407713 -0.7568
2010-09-08 06:50:31 51°13.663 2°55.961 20.7124 0.075983 0.407719 -0.7568
2010-09-08 06:50:36 51°13.663 2°55.961 20.7127 0.075983 0.407719 -0.7568
2010-09-08 06:50:41 51°13.663 2°55.961 20.7132 0.075879 0.407142 -0.7568
2010-09-08 06:50:46 51°13.663 2°55.961 20.7144 0.075983 0.407726 -0.7568
2010-09-08 06:50:51 51°13.663 2°55.961 20.7148 0.075983 0.407726 -0.791624
2010-09-08 06:50:56 51°13.663 2°55.961 20.7149 0.075879 0.407155 -0.7568
2010-09-08 06:51:01 51°13.663 2°55.961 20.7157 0.075983 0.407726 -0.721976
2010-09-08 06:51:06 51°13.663 2°55.961 20.7161 0.075983 0.407726 -0.721976
2010-09-08 06:51:11 51°13.663 2°55.961 20.7166 0.075983 0.407726 -0.721976
2010-09-08 06:51:16 51°13.663 2°55.961 20.7167 0.075879 0.407148 -0.7568
2010-09-08 06:51:21 51°13.664 2°55.961 20.7153 0.075879 0.407155 -0.721976
2010-09-08 06:51:26 51°13.664 2°55.961 20.7161 0.075983 0.407732 -0.721976
2010-09-08 06:51:31 51°13.663 2°55.961 20.7174 0.075983 0.407726 -0.7568
2010-09-08 06:51:36 51°13.663 2°55.96 20.7174 0.075983 0.407726 -0.7568
2010-09-08 06:51:41 51°13.663 2°55.96 20.7174 0.075983 0.407738 -0.721976
2010-09-08 06:51:46 51°13.663 2°55.96 20.7166 0.075879 0.407155 -0.721976
2010-09-08 06:51:51 51°13.664 2°55.96 20.7175 0.075983 0.407745 -0.721976
2010-09-08 06:51:56 51°13.664 2°55.961 20.7182 0.075983 0.407751 -0.7568
2010-09-08 06:52:01 51°13.664 2°55.961 20.7174 0.075879 0.407174 -0.687152
2010-09-08 06:52:06 51°13.664 2°55.961 20.718 0.075879 0.407174 -0.687152
2010-09-08 06:52:11 51°13.664 2°55.961 20.7186 0.075879 0.407174 -0.7568
2010-09-08 06:52:16 51°13.664 2°55.961 20.7177 0.075879 0.407174 -0.7568
2010-09-08 06:52:21 51°13.664 2°55.96 20.717 0.075983 0.407751 -0.721976
2010-09-08 06:52:26 51°13.664 2°55.96 20.7165 0.075983 0.407751 -0.7568
2010-09-08 06:52:31 51°13.664 2°55.96 20.7173 0.075879 0.407174 -0.721976
2010-09-08 06:52:36 51°13.664 2°55.96 20.7174 0.075879 0.407174 -0.721976
2010-09-08 06:52:41 51°13.664 2°55.96 20.7172 0.075879 0.407174 -0.721976
2010-09-08 06:52:46 51°13.663 2°55.96 20.7136 0.075983 0.407758 -0.721976
2010-09-08 06:52:51 51°13.663 2°55.96 20.714 0.075983 0.407764 -0.7568
2010-09-08 06:52:56 51°13.664 2°55.96 20.7147 0.075983 0.407764 -0.721976
2010-09-08 06:53:01 51°13.663 2°55.96 20.7136 0.075983 0.407764 -0.7568
2010-09-08 06:53:06 51°13.664 2°55.96 20.7138 0.075983 0.407764 -0.7568
2010-09-08 06:53:11 51°13.664 2°55.96 20.7147 0.075879 0.407193 -0.721976
2010-09-08 06:53:16 51°13.664 2°55.96 20.7164 0.075879 0.407193 -0.721976
2010-09-08 06:53:21 51°13.664 2°55.96 20.7174 0.075879 0.407193 -0.7568
2010-09-08 06:53:26 51°13.664 2°55.96 20.7178 0.075983 0.40777 -0.7568
2010-09-08 06:53:31 51°13.664 2°55.96 20.7162 0.075983 0.40777 -0.721976
2010-09-08 06:53:36 51°13.664 2°55.96 20.7157 0.075983 0.40777 -0.721976
2010-09-08 06:53:41 51°13.664 2°55.96 20.7166 0.075879 0.407206 -0.721976
2010-09-08 06:53:46 51°13.664 2°55.96 20.7167 0.075983 0.407783 -0.721976
2010-09-08 06:53:51 51°13.664 2°55.96 20.7174 0.075879 0.407206 -0.791624
2010-09-08 06:53:56 51°13.664 2°55.96 20.7179 0.075879 0.407206 -0.7568
2010-09-08 06:54:01 51°13.664 2°55.96 20.719 0.075983 0.407783 -0.791624
2010-09-08 06:54:06 51°13.664 2°55.961 20.72 0.075983 0.407783 -0.791624
2010-09-08 06:54:11 51°13.664 2°55.961 20.7192 0.075983 0.407777 -0.7568
2010-09-08 06:54:16 51°13.664 2°55.961 20.7215 0.075983 0.407783 -0.721976
2010-09-08 06:54:21 51°13.664 2°55.961 20.7221 0.075879 0.407212 -0.7568
2010-09-08 06:54:26 51°13.664 2°55.961 20.7234 0.075983 0.407796 -0.721976
2010-09-08 06:54:31 51°13.661 2°55.96 20.7241 0.075983 0.407802 -0.721976
2010-09-08 06:54:36 51°13.657 2°55.96 20.7247 0.075983 0.407802 -0.721976
2010-09-08 06:54:41 51°13.657 2°55.959 20.7231 0.075983 0.407796 -0.721976
2010-09-08 06:54:46 51°13.657 2°55.959 20.7247 0.075983 0.407809 -0.721976
2010-09-08 06:54:51 51°13.658 2°55.96 20.7239 0.075879 0.407231 -0.7568
2010-09-08 06:54:56 51°13.659 2°55.96 20.7248 0.075983 0.407809 -0.721976
2010-09-08 06:55:01 51°13.659 2°55.96 20.7249 0.075983 0.407809 -0.7568
2010-09-08 06:55:06 51°13.66 2°55.96 20.7241 0.075983 0.407809 -0.7568
2010-09-08 06:55:11 51°13.66 2°55.96 20.7257 0.075983 0.407802 -0.7568
2010-09-08 06:55:16 51°13.661 2°55.96 20.7242 0.075983 0.407809 -0.7568
2010-09-08 06:55:20 51°13.662 2°55.96 20.7227 0.075879 0.407238 -0.721976
2010-09-08 06:55:26 51°13.665 2°55.96 20.7244 0.075983 0.407815 -0.721976
2010-09-08 06:55:31 51°13.66 2°55.959 20.7239 0.075983 0.407815 -0.721976
2010-09-08 06:55:36 51°13.662 2°55.959 20.7247 0.075983 0.407815 -0.721976
2010-09-08 06:55:41 51°13.665 2°55.96 20.7257 0.075983 0.407815 -0.721976
2010-09-08 06:55:46 51°13.666 2°55.96 20.7256 0.075983 0.407828 -0.7568
2010-09-08 06:55:51 51°13.666 2°55.961 20.7248 0.075983 0.407828 -0.7568
2010-09-08 06:55:56 51°13.666 2°55.961 20.7257 0.075983 0.407828 -0.721976
2010-09-08 06:56:01 51°13.666 2°55.961 20.7259 0.075879 0.407257 -0.721976
2010-09-08 06:56:06 51°13.666 2°55.961 20.7276 0.075879 0.407257 -0.721976
2010-09-08 06:56:11 51°13.665 2°55.961 20.7282 0.075983 0.407834 -0.721976
2010-09-08 06:56:16 51°13.665 2°55.961 20.7282 0.075983 0.407834 -0.721976
2010-09-08 06:56:21 51°13.665 2°55.961 20.7283 0.075983 0.407841 -0.721976
2010-09-08 06:56:26 51°13.664 2°55.961 20.7278 0.075983 0.407841 -0.721976
2010-09-08 06:56:31 51°13.662 2°55.961 20.7278 0.075983 0.407834 -0.7568
2010-09-08 06:56:36 51°13.661 2°55.96 20.7291 0.075983 0.407834 -0.7568
2010-09-08 06:56:41 51°13.66 2°55.961 20.7291 0.075983 0.407841 -0.791624
2010-09-08 06:56:46 51°13.661 2°55.961 20.7296 0.075983 0.407841 -0.791624
2010-09-08 06:56:51 51°13.661 2°55.961 20.7301 0.075983 0.407847 -0.7568
2010-09-08 06:56:56 51°13.661 2°55.961 20.7281 0.075983 0.407847 -0.7568
2010-09-08 06:57:01 51°13.662 2°55.961 20.728 0.075983 0.40786 -0.7568
2010-09-08 06:57:06 51°13.661 2°55.962 20.7281 0.075983 0.40786 -0.7568
2010-09-08 06:57:11 51°13.66 2°55.961 20.7288 0.075983 0.407854 -0.721976
2010-09-08 06:57:16 51°13.661 2°55.961 20.7282 0.075983 0.407854 -0.721976
2010-09-08 06:57:21 51°13.663 2°55.962 20.7291 0.075879 0.407282 -0.721976
2010-09-08 06:57:26 51°13.665 2°55.962 20.7305 0.075983 0.40786 -0.7568
2010-09-08 06:57:31 51°13.666 2°55.962 20.7297 0.075983 0.40786 -0.7568
2010-09-08 06:57:36 51°13.666 2°55.963 20.7296 0.075983 0.40786 -0.7568
2010-09-08 06:57:41 51°13.666 2°55.962 20.7305 0.075983 0.407866 -0.7568
2010-09-08 06:57:46 51°13.665 2°55.962 20.7312 0.075983 0.407873 -0.721976
2010-09-08 06:57:51 51°13.665 2°55.962 20.7318 0.075983 0.407866 -0.7568
2010-09-08 06:57:56 51°13.664 2°55.962 20.7331 0.075983 0.407879 -0.721976
2010-09-08 06:58:01 51°13.663 2°55.962 20.732 0.075983 0.407873 -0.721976
2010-09-08 06:58:06 51°13.662 2°55.962 20.7332 0.075983 0.407873 -0.721976
2010-09-08 06:58:11 51°13.662 2°55.961 20.7348 0.075879 0.407302 -0.7568
2010-09-08 06:58:16 51°13.662 2°55.962 20.7346 0.075983 0.407886 -0.7568
2010-09-08 06:58:21 51°13.665 2°55.962 20.7349 0.075983 0.407879 -0.7568
2010-09-08 06:58:26 51°13.665 2°55.962 20.7337 0.075983 0.407886 -0.7568
2010-09-08 06:58:31 51°13.666 2°55.962 20.7341 0.075879 0.407308 -0.7568
2010-09-08 06:58:36 51°13.667 2°55.962 20.7342 0.075879 0.407308 -0.7568
2010-09-08 06:58:41 51°13.668 2°55.962 20.7346 0.075983 0.407886 -0.721976
2010-09-08 06:58:46 51°13.667 2°55.962 20.7362 0.075983 0.407892 -0.791624
2010-09-08 06:58:51 51°13.667 2°55.962 20.7353 0.075983 0.407892 -0.7568
2010-09-08 06:58:56 51°13.667 2°55.962 20.7354 0.075879 0.407308 -0.721976
2010-09-08 06:59:01 51°13.665 2°55.961 20.7379 0.075983 0.407898 -0.791624
2010-09-08 06:59:06 51°13.663 2°55.961 20.7369 0.075983 0.407898 -0.791624
2010-09-08 06:59:11 51°13.66 2°55.961 20.7352 0.075983 0.407898 -0.687152
2010-09-08 06:59:16 51°13.66 2°55.96 20.7345 0.075879 0.407327 -0.7568
2010-09-08 06:59:21 51°13.659 2°55.96 20.7355 0.075983 0.407905 -0.7568
2010-09-08 06:59:26 51°13.659 2°55.96 20.7364 0.075879 0.407327 -0.7568
2010-09-08 06:59:31 51°13.66 2°55.96 20.7378 0.075983 0.407911 -0.721976
2010-09-08 06:59:36 51°13.661 2°55.96 20.7369 0.075983 0.407911 -0.721976
2010-09-08 06:59:41 51°13.662 2°55.96 20.738 0.075983 0.407911 -0.7568
2010-09-08 06:59:46 51°13.663 2°55.961 20.7378 0.075983 0.407911 -0.7568
2010-09-08 06:59:51 51°13.664 2°55.961 20.7369 0.075983 0.407911 -0.721976
2010-09-08 06:59:56 51°13.664 2°55.961 20.7362 0.075983 0.407911 -0.7568
2010-09-08 07:00:01 51°13.663 2°55.961 20.7377 0.075983 0.407911 -0.721976
2010-09-08 07:00:06 51°13.662 2°55.96 20.7371 0.075983 0.407911 -0.721976
2010-09-08 07:00:11 51°13.666 2°55.961 20.7349 0.075983 0.407918 -0.7568
2010-09-08 07:00:16 51°13.666 2°55.962 20.7334 0.075879 0.407346 -0.7568
2010-09-08 07:00:20 51°13.666 2°55.962 20.7344 0.075983 0.407924 -0.7568
2010-09-08 07:00:26 51°13.666 2°55.962 20.7352 0.075879 0.407346 -0.721976
2010-09-08 07:00:31 51°13.665 2°55.961 20.7348 0.075879 0.407346 -0.721976
2010-09-08 07:00:36 51°13.665 2°55.961 20.7324 0.075879 0.407346 -0.721976
2010-09-08 07:00:41 51°13.665 2°55.961 20.732 0.075983 0.40793 -0.721976
2010-09-08 07:00:46 51°13.666 2°55.961 20.7311 0.075983 0.40793 -0.721976
2010-09-08 07:00:51 51°13.666 2°55.961 20.7311 0.075879 0.407359 -0.7568
2010-09-08 07:00:56 51°13.666 2°55.961 20.7327 0.075983 0.407937 -0.7568
2010-09-08 07:01:01 51°13.667 2°55.962 20.7338 0.075879 0.407353 -0.7568
2010-09-08 07:01:06 51°13.669 2°55.962 20.7355 0.075879 0.407353 -0.7568
2010-09-08 07:01:11 51°13.67 2°55.962 20.736 0.075983 0.407937 -0.7568
2010-09-08 07:01:16 51°13.67 2°55.962 20.7364 0.075983 0.407937 -0.7568
2010-09-08 07:01:21 51°13.67 2°55.962 20.7372 0.075983 0.407943 -0.721976
2010-09-08 07:01:26 51°13.67 2°55.962 20.7365 0.075983 0.407937 -0.721976
2010-09-08 07:01:31 51°13.67 2°55.962 20.7378 0.075983 0.407943 -0.721976
2010-09-08 07:01:36 51°13.67 2°55.962 20.7391 0.075983 0.407943 -0.721976
2010-09-08 07:01:41 51°13.669 2°55.962 20.7394 0.075983 0.407943 -0.7568
2010-09-08 07:01:46 51°13.667 2°55.962 20.7406 0.075983 0.40795 -0.7568
2010-09-08 07:01:51 51°13.665 2°55.961 20.7422 0.075983 0.40795 -0.7568
2010-09-08 07:01:56 51°13.663 2°55.96 20.7404 0.075879 0.407378 -0.7568
2010-09-08 07:02:01 51°13.662 2°55.96 20.7394 0.075983 0.407956 -0.7568
2010-09-08 07:02:06 51°13.662 2°55.96 20.7398 0.075983 0.407956 -0.7568
2010-09-08 07:02:11 51°13.665 2°55.96 20.7405 0.075983 0.407956 -0.721976
2010-09-08 07:02:16 51°13.667 2°55.961 20.7418 0.075983 0.407962 -0.721976
2010-09-08 07:02:20 51°13.667 2°55.961 20.7432 0.075983 0.407956 -0.721976
2010-09-08 07:02:26 51°13.668 2°55.961 20.7431 0.075983 0.407962 -0.721976
2010-09-08 07:02:31 51°13.668 2°55.961 20.7414 0.075879 0.407391 -0.7568
2010-09-08 07:02:36 51°13.667 2°55.96 20.741 0.075879 0.407391 -0.7568
2010-09-08 07:02:41 51°13.665 2°55.96 20.7409 0.075983 0.407969 -0.721976
2010-09-08 07:02:46 51°13.664 2°55.959 20.741 0.075983 0.407969 -0.7568
2010-09-08 07:02:51 51°13.664 2°55.959 20.7412 0.075983 0.407969 -0.791624
2010-09-08 07:02:55 51°13.663 2°55.959 20.7423 0.075983 0.407969 -0.7568
2010-09-08 07:03:01 51°13.663 2°55.959 20.7399 0.075983 0.407975 -0.721976
2010-09-08 07:03:06 51°13.664 2°55.959 20.7398 0.075983 0.407975 -0.721976
2010-09-08 07:03:11 51°13.66 2°55.958 20.741 0.075879 0.407398 -0.721976
2010-09-08 07:03:16 51°13.659 2°55.957 20.7437 0.075983 0.407982 -0.7568
2010-09-08 07:03:21 51°13.658 2°55.957 20.7446 0.075983 0.407982 -0.7568
2010-09-08 07:03:26 51°13.659 2°55.958 20.7437 0.075983 0.407982 -0.7568
2010-09-08 07:03:31 51°13.66 2°55.958 20.7422 0.075983 0.407988 -0.7568
2010-09-08 07:03:36 51°13.661 2°55.958 20.7429 0.075983 0.407988 -0.7568
2010-09-08 07:03:40 51°13.661 2°55.958 20.7424 0.075879 0.40741 -0.7568
2010-09-08 07:03:46 51°13.662 2°55.958 20.7419 0.075879 0.40741 -0.7568
2010-09-08 07:03:51 51°13.663 2°55.959 20.742 0.075879 0.40741 -0.7568
2010-09-08 07:03:56 51°13.666 2°55.96 20.7446 0.075983 0.407994 -0.721976
2010-09-08 07:04:01 51°13.667 2°55.96 20.7457 0.075983 0.407994 -0.7568
2010-09-08 07:04:06 51°13.666 2°55.96 20.7493 0.075983 0.407994 -0.7568
2010-09-08 07:04:11 51°13.666 2°55.96 20.7512 0.075983 0.407994 -0.721976
2010-09-08 07:04:16 51°13.667 2°55.961 20.7526 0.075983 0.407988 -0.7568
2010-09-08 07:04:21 51°13.667 2°55.961 20.7489 0.075983 0.408001 -0.7568
2010-09-08 07:04:26 51°13.667 2°55.961 20.7471 0.075983 0.408007 -0.7568
2010-09-08 07:04:31 51°13.667 2°55.961 20.7476 0.075879 0.40743 -0.7568
2010-09-08 07:04:40 51°13.667 2°55.961 20.7477 0.075879 0.40743 -0.7568
2010-09-08 07:04:45 51°13.667 2°55.961 20.7484 0.075983 0.408007 -0.7568
2010-09-08 07:04:50 51°13.668 2°55.961 20.7505 0.075983 0.408007 -0.7568
2010-09-08 07:04:55 51°13.668 2°55.961 20.7512 0.075879 0.40743 -0.791624
2010-09-08 07:05:00 51°13.667 2°55.961 20.7516 0.075983 0.408014 -0.7568
2010-09-08 07:05:04 51°13.668 2°55.96 20.7527 0.075983 0.408014 -0.721976
2010-09-08 07:05:09 51°13.668 2°55.96 20.7527 0.075983 0.408014 -0.721976
2010-09-08 07:05:14 51°13.667 2°55.96 20.752 0.075879 0.407442 -0.721976
2010-09-08 07:05:19 51°13.667 2°55.96 20.7539 0.075983 0.408027 -0.7568
2010-09-08 07:05:24 51°13.667 2°55.961 20.7528 0.075983 0.408014 -0.791624
2010-09-08 07:05:29 51°13.667 2°55.961 20.7536 0.075879 0.407449 -0.7568
2010-09-08 07:05:34 51°13.667 2°55.961 20.7545 0.075983 0.408027 -0.7568
2010-09-08 07:05:39 51°13.667 2°55.961 20.7523 0.075983 0.408027 -0.7568
2010-09-08 07:05:44 51°13.667 2°55.961 20.7511 0.075983 0.408033 -0.791624
2010-09-08 07:05:48 51°13.667 2°55.961 20.7504 0.075983 0.408033 -0.7568
2010-09-08 07:05:53 51°13.668 2°55.961 20.7511 0.075879 0.407455 -0.721976
2010-09-08 07:05:58 51°13.668 2°55.961 20.7489 0.075983 0.408033 -0.721976
2010-09-08 07:06:03 51°13.668 2°55.961 20.7508 0.075879 0.407462 -0.721976
2010-09-08 07:06:08 51°13.667 2°55.961 20.7535 0.075879 0.407462 -0.721976
2010-09-08 07:06:12 51°13.667 2°55.961 20.7545 0.075983 0.408033 -0.7568
2010-09-08 07:06:17 51°13.667 2°55.961 20.7532 0.075879 0.407468 -0.7568
2010-09-08 07:06:22 51°13.667 2°55.961 20.7552 0.075879 0.407468 -0.7568
2010-09-08 07:06:27 51°13.667 2°55.961 20.7492 0.075983 0.408046 -0.7568
2010-09-08 07:06:32 51°13.667 2°55.961 20.7452 0.075879 0.407468 -0.7568
2010-09-08 07:06:37 51°13.667 2°55.961 20.747 0.075879 0.407468 -0.7568
2010-09-08 07:06:42 51°13.667 2°55.961 20.7573 0.075879 0.407468 -0.7568
2010-09-08 07:06:47 51°13.667 2°55.961 20.7613 0.075983 0.408052 -0.721976
2010-09-08 07:06:52 51°13.667 2°55.961 20.7561 0.075983 0.408052 -0.7568
2010-09-08 07:06:56 51°13.667 2°55.961 20.7565 0.075879 0.407481 -0.7568
2010-09-08 07:07:01 51°13.666 2°55.961 20.754 0.075879 0.407481 -0.721976
2010-09-08 07:07:06 51°13.665 2°55.96 20.7576 0.075879 0.407481 -0.721976
2010-09-08 07:07:11 51°13.664 2°55.96 20.7573 0.075983 0.408065 -0.7568
2010-09-08 07:07:16 51°13.66 2°55.958 20.7535 0.075983 0.408059 -0.7568
2010-09-08 07:07:20 51°13.658 2°55.957 20.7548 0.075879 0.407494 -0.7568
2010-09-08 07:07:26 51°13.658 2°55.956 20.7523 0.075983 0.408065 -0.7568
2010-09-08 07:07:31 51°13.658 2°55.957 20.7513 0.075879 0.407494 -0.7568
2010-09-08 07:07:36 51°13.66 2°55.957 20.7545 0.075879 0.407494 -0.7568
2010-09-08 07:07:40 51°13.661 2°55.958 20.757 0.075879 0.407494 -0.7568
2010-09-08 07:07:46 51°13.664 2°55.959 20.757 0.075983 0.408071 -0.7568
2010-09-08 07:07:51 51°13.667 2°55.96 20.7573 0.075983 0.408078 -0.7568
2010-09-08 07:07:56 51°13.668 2°55.961 20.7574 0.075983 0.408078 -0.721976
2010-09-08 07:08:00 51°13.668 2°55.961 20.7562 0.075983 0.408084 -0.721976
2010-09-08 07:08:06 51°13.668 2°55.961 20.7551 0.075983 0.408084 -0.721976
2010-09-08 07:08:11 51°13.667 2°55.96 20.7542 0.075879 0.407513 -0.7568
2010-09-08 07:08:16 51°13.666 2°55.96 20.7547 0.075879 0.407506 -0.7568
2010-09-08 07:08:21 51°13.665 2°55.96 20.7548 0.075983 0.408084 -0.791624
2010-09-08 07:08:26 51°13.665 2°55.959 20.756 0.075983 0.408091 -0.7568
2010-09-08 07:08:31 51°13.665 2°55.959 20.7562 0.075879 0.407519 -0.791624
2010-09-08 07:08:36 51°13.664 2°55.959 20.7554 0.075879 0.407519 -0.791624
2010-09-08 07:08:40 51°13.664 2°55.958 20.7558 0.075879 0.407513 -0.7568
2010-09-08 07:08:46 51°13.664 2°55.959 20.7576 0.075983 0.408097 -0.721976
2010-09-08 07:08:51 51°13.665 2°55.959 20.7581 0.075983 0.408103 -0.721976
2010-09-08 07:08:56 51°13.665 2°55.959 20.7596 0.075879 0.407526 -0.7568
2010-09-08 07:09:00 51°13.665 2°55.959 20.7599 0.075879 0.407526 -0.7568
2010-09-08 07:09:06 51°13.665 2°55.959 20.7607 0.075879 0.407526 -0.7568
2010-09-08 07:09:11 51°13.665 2°55.959 20.759 0.075983 0.408116 -0.7568
2010-09-08 07:09:16 51°13.665 2°55.959 20.7543 0.075879 0.407526 -0.7568
2010-09-08 07:09:21 51°13.665 2°55.959 20.7521 0.075879 0.407538 -0.791624
2010-09-08 07:09:26 51°13.666 2°55.959 20.7536 0.075983 0.408116 -0.7568
2010-09-08 07:09:31 51°13.667 2°55.959 20.7564 0.075983 0.408116 -0.7568
2010-09-08 07:09:36 51°13.667 2°55.96 20.7585 0.075983 0.408116 -0.7568
2010-09-08 07:09:41 51°13.667 2°55.96 20.7593 0.075879 0.407545 -0.7568
2010-09-08 07:09:46 51°13.666 2°55.96 20.7602 0.075879 0.407545 -0.721976
2010-09-08 07:09:51 51°13.665 2°55.959 20.7605 0.075983 0.408123 -0.7568
2010-09-08 07:09:56 51°13.664 2°55.959 20.7613 0.075879 0.407551 -0.7568
2010-09-08 07:10:01 51°13.665 2°55.959 20.7637 0.075983 0.408129 -0.7568
2010-09-08 07:10:06 51°13.665 2°55.959 20.7634 0.075983 0.408129 -0.7568
2010-09-08 07:10:11 51°13.667 2°55.96 20.7632 0.075879 0.407551 -0.7568
2010-09-08 07:10:16 51°13.668 2°55.961 20.7621 0.075983 0.408136 -0.721976
2010-09-08 07:10:21 51°13.667 2°55.96 20.7627 0.075983 0.408142 -0.7568
2010-09-08 07:10:26 51°13.666 2°55.96 20.7644 0.075983 0.408142 -0.7568
2010-09-08 07:10:31 51°13.665 2°55.959 20.7655 0.075983 0.408142 -0.721976
2010-09-08 07:10:36 51°13.665 2°55.959 20.7647 0.075983 0.408142 -0.721976
2010-09-08 07:10:41 51°13.665 2°55.959 20.7652 0.075983 0.408142 -0.721976
2010-09-08 07:10:46 51°13.665 2°55.959 20.7652 0.075983 0.408142 -0.721976
2010-09-08 07:10:51 51°13.665 2°55.96 20.7675 0.075983 0.408148 -0.721976
2010-09-08 07:10:56 51°13.665 2°55.959 20.768 0.075879 0.40757 -0.721976
2010-09-08 07:11:01 51°13.665 2°55.959 20.769 0.075879 0.407577 -0.721976
2010-09-08 07:11:06 51°13.665 2°55.959 20.7679 0.075879 0.407577 -0.721976
2010-09-08 07:11:11 51°13.664 2°55.959 20.7693 0.075879 0.407577 -0.7568
2010-09-08 07:11:16 51°13.664 2°55.959 20.7704 0.075879 0.407583 -0.7568
2010-09-08 07:11:21 51°13.664 2°55.958 20.769 0.075879 0.40759 -0.721976
2010-09-08 07:11:26 51°13.664 2°55.958 20.7682 0.075879 0.40759 -0.7568
2010-09-08 07:11:31 51°13.664 2°55.959 20.7677 0.075983 0.408168 -0.7568
2010-09-08 07:11:36 51°13.664 2°55.959 20.7701 0.075983 0.408168 -0.7568
2010-09-08 07:11:41 51°13.664 2°55.959 20.7713 0.075879 0.40759 -0.721976
2010-09-08 07:11:46 51°13.664 2°55.959 20.7697 0.075879 0.407596 -0.721976
2010-09-08 07:11:51 51°13.663 2°55.958 20.7679 0.075879 0.407596 -0.791624
2010-09-08 07:11:56 51°13.665 2°55.96 20.7672 0.075879 0.407596 -0.7568
2010-09-08 07:12:01 51°13.67 2°55.963 20.768 0.075879 0.407602 -0.721976
2010-09-08 07:12:06 51°13.672 2°55.964 20.7697 0.075879 0.407602 -0.721976
2010-09-08 07:12:11 51°13.672 2°55.965 20.7714 0.075879 0.407596 -0.7568
2010-09-08 07:12:16 51°13.671 2°55.965 20.7722 0.075879 0.407596 -0.7568
2010-09-08 07:12:21 51°13.67 2°55.964 20.7728 0.075879 0.407609 -0.7568
2010-09-08 07:12:26 51°13.669 2°55.963 20.7736 0.075879 0.407609 -0.721976
2010-09-08 07:12:31 51°13.665 2°55.961 20.774 0.075983 0.408193 -0.7568
2010-09-08 07:12:36 51°13.663 2°55.96 20.7764 0.075983 0.408193 -0.7568
2010-09-08 07:12:41 51°13.663 2°55.959 20.7781 0.075879 0.407615 -0.721976
2010-09-08 07:12:46 51°13.665 2°55.961 20.778 0.075879 0.407615 -0.721976
2010-09-08 07:12:51 51°13.664 2°55.961 20.7801 0.075879 0.407615 -0.7568
2010-09-08 07:12:56 51°13.663 2°55.96 20.7821 0.075983 0.4082 -0.721976
2010-09-08 07:13:01 51°13.662 2°55.959 20.7823 0.075879 0.407622 -0.791624
2010-09-08 07:13:06 51°13.665 2°55.961 20.7836 0.075879 0.407622 -0.791624
2010-09-08 07:13:11 51°13.663 2°55.96 20.7834 0.075879 0.407628 -0.7568
2010-09-08 07:13:16 51°13.663 2°55.96 20.7856 0.075879 0.407628 -0.7568
2010-09-08 07:13:21 51°13.662 2°55.959 20.7862 0.075879 0.407641 -0.7568
2010-09-08 07:13:26 51°13.662 2°55.959 20.7877 0.075983 0.408212 -0.7568
2010-09-08 07:13:31 51°13.662 2°55.959 20.7905 0.075879 0.407641 -0.721976
2010-09-08 07:13:36 51°13.662 2°55.959 20.7919 0.075879 0.407641 -0.721976
2010-09-08 07:13:40 51°13.662 2°55.959 20.791 0.075879 0.407641 -0.721976
2010-09-08 07:13:46 51°13.662 2°55.959 20.7921 0.075879 0.407641 -0.721976
2010-09-08 07:13:51 51°13.662 2°55.959 20.7927 0.075879 0.407641 -0.791624
2010-09-08 07:13:56 51°13.662 2°55.959 20.7943 0.075879 0.407647 -0.7568
2010-09-08 07:14:00 51°13.662 2°55.959 20.7948 0.075879 0.407647 -0.7568
2010-09-08 07:14:06 51°13.662 2°55.959 20.7955 0.075879 0.407647 -0.7568
2010-09-08 07:14:11 51°13.662 2°55.959 20.7954 0.075879 0.407654 -0.721976
2010-09-08 07:14:16 51°13.662 2°55.959 20.795 0.075879 0.407654 -0.7568
2010-09-08 07:14:21 51°13.662 2°55.959 20.7971 0.075879 0.40766 -0.721976
2010-09-08 07:14:26 51°13.662 2°55.959 20.8053 0.075879 0.40766 -0.721976
2010-09-08 07:14:31 51°13.661 2°55.96 20.8087 0.075879 0.407654 -0.7568
2010-09-08 07:14:36 51°13.661 2°55.96 20.7973 0.075879 0.407654 -0.7568
2010-09-08 07:14:40 51°13.661 2°55.959 20.7975 0.075879 0.40766 -0.7568
2010-09-08 07:14:46 51°13.661 2°55.96 20.799 0.075879 0.40766 -0.7568
2010-09-08 07:14:51 51°13.661 2°55.959 20.8087 0.075879 0.40766 -0.7568
2010-09-08 07:14:56 51°13.661 2°55.959 20.8118 0.075879 0.407673 -0.7568
2010-09-08 07:15:00 51°13.661 2°55.96 20.8069 0.075879 0.407679 -0.791624
2010-09-08 07:15:06 51°13.661 2°55.96 20.8112 0.075879 0.407679 -0.791624
2010-09-08 07:15:11 51°13.661 2°55.959 20.813 0.075879 0.407679 -0.7568
2010-09-08 07:15:16 51°13.661 2°55.959 20.8122 0.075879 0.407679 -0.7568
2010-09-08 07:15:21 51°13.661 2°55.959 20.8122 0.075879 0.407686 -0.721976
2010-09-08 07:15:26 51°13.661 2°55.959 20.8116 0.075879 0.407686 -0.7568
2010-09-08 07:15:31 51°13.66 2°55.959 20.8109 0.075879 0.407679 -0.721976
2010-09-08 07:15:36 51°13.66 2°55.959 20.8109 0.075879 0.407679 -0.721976
2010-09-08 07:15:40 51°13.66 2°55.959 20.8121 0.075879 0.407686 -0.7568
2010-09-08 07:15:46 51°13.66 2°55.959 20.8102 0.075879 0.407686 -0.7568
2010-09-08 07:15:51 51°13.66 2°55.959 20.8096 0.075879 0.407692 -0.721976
2010-09-08 07:15:56 51°13.66 2°55.959 20.8108 0.075879 0.407692 -0.7568
2010-09-08 07:16:00 51°13.66 2°55.959 20.8104 0.075879 0.407692 -0.7568
2010-09-08 07:16:06 51°13.66 2°55.959 20.8116 0.075879 0.407692 -0.7568
2010-09-08 07:16:11 51°13.66 2°55.959 20.8134 0.075879 0.407692 -0.7568
2010-09-08 07:16:16 51°13.66 2°55.959 20.8138 0.075879 0.407692 -0.7568
2010-09-08 07:16:21 51°13.66 2°55.959 20.8132 0.075879 0.407699 -0.7568
2010-09-08 07:16:26 51°13.659 2°55.959 20.8117 0.075879 0.407699 -0.7568
2010-09-08 07:16:31 51°13.659 2°55.959 20.8075 0.075879 0.407705 -0.721976
2010-09-08 07:16:36 51°13.659 2°55.958 20.7479 0.075879 0.407705 -0.721976
2010-09-08 07:16:40 51°13.66 2°55.958 20.7635 0.075879 0.407711 -0.721976
2010-09-08 07:16:46 51°13.659 2°55.957 20.7624 0.075879 0.407705 -0.721976
2010-09-08 07:16:51 51°13.66 2°55.955 20.6956 0.075983 0.408283 -0.7568
2010-09-08 07:16:56 51°13.661 2°55.952 20.7601 0.075983 0.408283 -0.791624
2010-09-08 07:17:00 51°13.662 2°55.949 20.7708 0.075879 0.407686 -0.7568
2010-09-08 07:17:07 51°13.663 2°55.942 20.7574 0.075879 0.407686 -0.7568
2010-09-08 07:17:12 51°13.664 2°55.937 20.7439 0.075879 0.407667 -0.791624
2010-09-08 07:17:18 51°13.666 2°55.929 20.7662 0.075879 0.407679 -0.7568
2010-09-08 07:17:23 51°13.668 2°55.923 20.7631 0.075879 0.407705 -0.791624
2010-09-08 07:17:29 51°13.669 2°55.914 20.7858 0.075879 0.407731 -0.7568
2010-09-08 07:17:35 51°13.671 2°55.905 20.7647 0.075879 0.407756 -0.721976
2010-09-08 07:17:40 51°13.673 2°55.897 20.7838 0.075879 0.407756 -0.721976
2010-09-08 07:17:44 51°13.674 2°55.89 20.7856 0.075983 0.408354 -0.721976
2010-09-08 07:17:50 51°13.676 2°55.879 20.7955 0.075879 0.407769 -0.7568
2010-09-08 07:17:55 51°13.678 2°55.871 20.8059 0.075879 0.407756 -0.7568
2010-09-08 07:18:00 51°13.68 2°55.862 20.8008 0.075879 0.407737 -0.7568
2010-09-08 07:18:04 51°13.681 2°55.855 20.7998 0.075879 0.407711 -0.7568
2010-09-08 07:18:10 51°13.683 2°55.845 20.8004 0.075879 0.407711 -0.7568
2010-09-08 07:18:15 51°13.684 2°55.837 20.7997 0.075879 0.407705 -0.791624
2010-09-08 07:18:20 51°13.685 2°55.829 20.796 0.075879 0.407692 -0.7568
2010-09-08 07:18:24 51°13.686 2°55.821 20.7778 0.075879 0.407692 -0.7568
2010-09-08 07:18:30 51°13.687 2°55.811 20.7772 0.075879 0.407705 -0.721976
2010-09-08 07:18:35 51°13.688 2°55.802 20.7791 0.075879 0.407718 -0.721976
2010-09-08 07:18:40 51°13.689 2°55.796 20.7831 0.075879 0.407718 -0.721976
2010-09-08 07:18:44 51°13.69 2°55.79 20.7828 0.075879 0.407731 -0.721976
2010-09-08 07:18:50 51°13.691 2°55.781 20.7859 0.075879 0.407743 -0.7568
2010-09-08 07:18:55 51°13.692 2°55.773 20.7888 0.075879 0.407756 -0.7568
2010-09-08 07:19:00 51°13.693 2°55.766 20.7873 0.075879 0.407769 -0.721976
2010-09-08 07:19:04 51°13.693 2°55.76 20.7886 0.075879 0.407769 -0.7568
2010-09-08 07:19:09 51°13.694 2°55.752 20.7931 0.075879 0.407769 -0.7568
2010-09-08 07:19:14 51°13.695 2°55.746 20.7947 0.075879 0.407769 -0.791624
2010-09-08 07:19:19 51°13.696 2°55.739 20.7917 0.075983 0.408354 -0.7568
2010-09-08 07:19:24 51°13.696 2°55.734 20.7901 0.075879 0.407775 -0.791624
2010-09-08 07:19:29 51°13.696 2°55.728 20.791 0.075879 0.407782 -0.721976
2010-09-08 07:19:34 51°13.696 2°55.724 20.8064 0.075879 0.407782 -0.7568
2010-09-08 07:19:39 51°13.697 2°55.721 20.8126 0.075879 0.407782 -0.7568
2010-09-08 07:19:44 51°13.697 2°55.72 20.82 0.075879 0.407782 -0.721976
2010-09-08 07:19:48 51°13.697 2°55.72 20.8322 0.075879 0.407788 -0.721976
2010-09-08 07:19:53 51°13.698 2°55.722 20.839 0.075879 0.407775 -0.7568
2010-09-08 07:19:58 51°13.7 2°55.723 20.8357 0.075879 0.407775 -0.7568
2010-09-08 07:20:03 51°13.702 2°55.726 20.8328 0.075879 0.407782 -0.721976
2010-09-08 07:20:08 51°13.704 2°55.729 20.8272 0.075879 0.407782 -0.721976
2010-09-08 07:20:12 51°13.706 2°55.731 20.8247 0.075879 0.407795 -0.7568
2010-09-08 07:20:17 51°13.709 2°55.733 20.8198 0.075879 0.407808 -0.791624
2010-09-08 07:20:22 51°13.712 2°55.735 20.8099 0.075879 0.40782 -0.721976
2010-09-08 07:20:27 51°13.715 2°55.736 20.7766 0.075879 0.407827 -0.7568
2010-09-08 07:20:32 51°13.718 2°55.737 20.7337 0.075879 0.407827 -0.7568
2010-09-08 07:20:37 51°13.72 2°55.738 20.7256 0.075879 0.407827 -0.7568
2010-09-08 07:20:41 51°13.721 2°55.738 20.7835 0.075879 0.407833 -0.721976
2010-09-08 07:20:46 51°13.721 2°55.738 20.7643 0.075879 0.407827 -0.721976
2010-09-08 07:20:51 51°13.721 2°55.738 20.6718 0.075879 0.40782 -0.721976
2010-09-08 07:20:56 51°13.721 2°55.738 20.7829 0.075879 0.407814 -0.7568
2010-09-08 07:21:00 51°13.72 2°55.738 20.7801 0.075879 0.407814 -0.7568
2010-09-08 07:21:06 51°13.719 2°55.738 20.7729 0.075879 0.407814 -0.7568
2010-09-08 07:21:11 51°13.719 2°55.738 20.7728 0.075879 0.407808 -0.7568
2010-09-08 07:21:16 51°13.719 2°55.738 20.7805 0.075879 0.407801 -0.791624
2010-09-08 07:21:20 51°13.719 2°55.738 20.7941 0.075879 0.407801 -0.7568
2010-09-08 07:21:26 51°13.719 2°55.737 20.7945 0.075879 0.407795 -0.7568
2010-09-08 07:21:31 51°13.72 2°55.737 20.7934 0.075879 0.407795 -0.7568
2010-09-08 07:21:36 51°13.721 2°55.735 20.7963 0.075879 0.407795 -0.7568
2010-09-08 07:21:41 51°13.722 2°55.734 20.8132 0.075879 0.407795 -0.721976
2010-09-08 07:21:46 51°13.725 2°55.733 20.8202 0.075879 0.407801 -0.721976
2010-09-08 07:21:51 51°13.728 2°55.731 20.8135 0.075879 0.407801 -0.721976
2010-09-08 07:21:56 51°13.731 2°55.728 20.8096 0.075879 0.407814 -0.7568
2010-09-08 07:22:01 51°13.735 2°55.723 20.8007 0.075879 0.40782 -0.7568
2010-09-08 07:22:06 51°13.739 2°55.719 20.8018 0.075879 0.40782 -0.7568
2010-09-08 07:22:11 51°13.745 2°55.713 20.79 0.075879 0.40782 -0.7568
2010-09-08 07:22:16 51°13.751 2°55.707 20.7734 0.075879 0.40782 -0.721976
2010-09-08 07:22:21 51°13.758 2°55.7 20.7266 0.075879 0.40782 -0.791624
2010-09-08 07:22:26 51°13.766 2°55.693 20.7207 0.075879 0.40782 -0.7568
2010-09-08 07:22:31 51°13.774 2°55.686 20.7246 0.075879 0.407814 -0.7568
2010-09-08 07:22:36 51°13.783 2°55.679 20.7243 0.075879 0.407814 -0.7568
2010-09-08 07:22:41 51°13.792 2°55.671 20.7309 0.075879 0.407827 -0.7568
2010-09-08 07:22:46 51°13.801 2°55.663 20.7381 0.075879 0.40784 -0.7568
2010-09-08 07:22:51 51°13.81 2°55.654 20.7127 0.075879 0.407846 -0.721976
2010-09-08 07:22:56 51°13.82 2°55.646 20.7242 0.075879 0.407859 -0.721976
2010-09-08 07:23:01 51°13.83 2°55.637 20.7125 0.075879 0.407872 -0.721976
2010-09-08 07:23:06 51°13.84 2°55.628 20.7125 0.075879 0.407872 -0.721976
2010-09-08 07:23:11 51°13.851 2°55.62 20.7261 0.075879 0.407878 -0.791624
2010-09-08 07:23:16 51°13.862 2°55.611 20.7313 0.075879 0.407872 -0.7568
2010-09-08 07:23:21 51°13.874 2°55.603 20.7634 0.075879 0.407885 -0.721976
2010-09-08 07:23:26 51°13.887 2°55.594 20.7231 0.075879 0.407872 -0.7568
2010-09-08 07:23:31 51°13.9 2°55.585 20.6988 0.075879 0.407865 -0.7568
2010-09-08 07:23:36 51°13.913 2°55.576 20.7235 0.075879 0.407865 -0.7568
2010-09-08 07:23:41 51°13.926 2°55.567 20.6771 0.075879 0.407859 -0.7568
2010-09-08 07:23:46 51°13.938 2°55.557 20.665 0.075879 0.407865 -0.7568
2010-09-08 07:23:51 51°13.951 2°55.548 20.6728 0.075879 0.407865 -0.7568
2010-09-08 07:23:56 51°13.964 2°55.538 20.7265 0.075879 0.407878 -0.7568
2010-09-08 07:24:01 51°13.977 2°55.528 20.6903 0.075879 0.407897 -0.7568
2010-09-08 07:24:06 51°13.991 2°55.518 20.7071 0.075879 0.407897 -0.7568
2010-09-08 07:24:11 51°14.004 2°55.507 20.6905 0.075879 0.407923 -0.7568
2010-09-08 07:24:16 51°14.017 2°55.497 20.7195 0.075879 0.407942 -0.721976
2010-09-08 07:24:21 51°14.031 2°55.487 20.6747 0.075879 0.407949 -0.7568
2010-09-08 07:24:26 51°14.044 2°55.478 20.7076 0.075879 0.407955 -0.7568
2010-09-08 07:24:31 51°14.058 2°55.468 20.7335 0.075879 0.407942 -0.721976
2010-09-08 07:24:36 51°14.072 2°55.457 20.6805 0.075879 0.407942 -0.721976
2010-09-08 07:24:41 51°14.086 2°55.446 20.7045 0.075879 0.407936 -0.7568
2010-09-08 07:24:46 51°14.099 2°55.436 20.6837 0.075879 0.407917 -0.721976
2010-09-08 07:24:51 51°14.113 2°55.425 20.6883 0.075879 0.407904 -0.7568
2010-09-08 07:24:56 51°14.127 2°55.414 20.7033 0.075879 0.407897 -0.7568
2010-09-08 07:25:00 51°14.138 2°55.406 20.6732 0.075879 0.407904 -0.7568
2010-09-08 07:25:06 51°14.155 2°55.393 20.665 0.075879 0.407904 -0.7568
2010-09-08 07:25:11 51°14.169 2°55.383 20.7024 0.075879 0.40791 -0.7568
2010-09-08 07:25:16 51°14.183 2°55.373 20.7126 0.075879 0.40791 -0.7568
2010-09-08 07:25:21 51°14.197 2°55.362 20.716 0.075879 0.407904 -0.721976
2010-09-08 07:25:26 51°14.211 2°55.35 20.6957 0.075879 0.407897 -0.7568
2010-09-08 07:25:31 51°14.224 2°55.339 20.7314 0.075879 0.407885 -0.721976
2010-09-08 07:25:36 51°14.238 2°55.328 20.7282 0.075879 0.407885 -0.721976
2010-09-08 07:25:41 51°14.252 2°55.316 20.7274 0.075879 0.407878 -0.7568
2010-09-08 07:25:46 51°14.265 2°55.305 20.7223 0.075879 0.407891 -0.721976
2010-09-08 07:25:51 51°14.279 2°55.293 20.7326 0.075879 0.407897 -0.7568
2010-09-08 07:25:56 51°14.292 2°55.28 20.6976 0.075879 0.407923 -0.7568
2010-09-08 07:26:00 51°14.303 2°55.27 20.7086 0.075879 0.407904 -0.7568
2010-09-08 07:26:06 51°14.319 2°55.254 20.7044 0.075879 0.407904 -0.7568
2010-09-08 07:26:11 51°14.332 2°55.243 20.7413 0.075879 0.407885 -0.791624
2010-09-08 07:26:16 51°14.346 2°55.229 20.6564 0.075879 0.407859 -0.7568
2010-09-08 07:26:20 51°14.357 2°55.219 20.7061 0.075879 0.407872 -0.7568
2010-09-08 07:26:26 51°14.374 2°55.203 20.6831 0.075879 0.407904 -0.7568
2010-09-08 07:26:31 51°14.387 2°55.19 20.7282 0.075879 0.407949 -0.7568
2010-09-08 07:26:36 51°14.402 2°55.178 20.671 0.075879 0.407949 -0.7568
2010-09-08 07:26:41 51°14.415 2°55.163 20.7 0.075879 0.407994 -0.721976
2010-09-08 07:26:46 51°14.428 2°55.15 20.6981 0.075879 0.408032 -0.7568
2010-09-08 07:26:51 51°14.442 2°55.136 20.7178 0.075879 0.408032 -0.721976
2010-09-08 07:26:56 51°14.455 2°55.122 20.7298 0.075879 0.408013 -0.7568
2010-09-08 07:27:01 51°14.47 2°55.109 20.6815 0.075879 0.407994 -0.721976
2010-09-08 07:27:06 51°14.483 2°55.095 20.7267 0.075879 0.407994 -0.721976
2010-09-08 07:27:11 51°14.498 2°55.08 20.6642 0.075879 0.407955 -0.7568
2010-09-08 07:27:16 51°14.513 2°55.065 20.734 0.075879 0.407942 -0.7568
2010-09-08 07:27:21 51°14.527 2°55.05 20.7719 0.075879 0.407917 -0.791624
2010-09-08 07:27:26 51°14.541 2°55.032 20.8101 0.075879 0.407929 -0.7568
2010-09-08 07:27:31 51°14.553 2°55.012 20.8116 0.075879 0.407949 -0.721976
2010-09-08 07:27:36 51°14.565 2°54.99 20.7944 0.075879 0.407949 -0.721976
2010-09-08 07:27:41 51°14.576 2°54.967 20.7726 0.075879 0.407981 -0.721976
2010-09-08 07:27:46 51°14.586 2°54.942 20.7588 0.075879 0.408006 -0.7568
2010-09-08 07:27:51 51°14.594 2°54.916 20.7381 0.075879 0.408026 -0.7568
2010-09-08 07:27:56 51°14.602 2°54.889 20.7805 0.075879 0.408019 -0.7568
2010-09-08 07:28:00 51°14.609 2°54.867 20.7744 0.075879 0.408013 -0.7568
2010-09-08 07:28:06 51°14.615 2°54.833 20.7273 0.075879 0.408013 -0.7568
2010-09-08 07:28:11 51°14.62 2°54.804 20.7556 0.075879 0.407987 -0.7568
2010-09-08 07:28:16 51°14.623 2°54.775 20.7929 0.075879 0.407974 -0.7568
2010-09-08 07:28:21 51°14.626 2°54.745 20.7605 0.075879 0.407962 -0.791624
2010-09-08 07:28:26 51°14.626 2°54.715 20.7933 0.075879 0.407968 -0.791624
2010-09-08 07:28:31 51°14.624 2°54.685 20.7725 0.075879 0.407974 -0.721976
2010-09-08 07:28:36 51°14.62 2°54.655 20.7652 0.075879 0.407974 -0.721976
2010-09-08 07:28:41 51°14.615 2°54.627 20.7632 0.075879 0.407994 -0.791624
2010-09-08 07:28:46 51°14.608 2°54.599 20.7741 0.075879 0.407994 -0.791624
2010-09-08 07:28:51 51°14.6 2°54.572 20.7809 0.075879 0.408 -0.721976
2010-09-08 07:28:56 51°14.59 2°54.546 20.7269 0.075879 0.408006 -0.7568
2010-09-08 07:29:01 51°14.579 2°54.522 20.7145 0.075879 0.408013 -0.721976
2010-09-08 07:29:06 51°14.566 2°54.499 20.601 0.075879 0.408013 -0.721976
2010-09-08 07:29:11 51°14.553 2°54.477 20.6568 0.075879 0.408019 -0.721976
2010-09-08 07:29:16 51°14.54 2°54.454 20.5492 0.075879 0.408 -0.7568
2010-09-08 07:29:21 51°14.526 2°54.431 20.4846 0.075879 0.408 -0.721976
2010-09-08 07:29:26 51°14.513 2°54.408 20.5182 0.075879 0.408 -0.7568
2010-09-08 07:29:31 51°14.501 2°54.384 20.5208 0.075879 0.407994 -0.7568
2010-09-08 07:29:36 51°14.489 2°54.359 20.5832 0.075879 0.407994 -0.7568
2010-09-08 07:29:41 51°14.478 2°54.333 20.5962 0.075879 0.407987 -0.7568
2010-09-08 07:29:46 51°14.469 2°54.306 20.6234 0.075879 0.407994 -0.791624
2010-09-08 07:29:51 51°14.459 2°54.279 20.6394 0.075879 0.408013 -0.7568
2010-09-08 07:29:56 51°14.449 2°54.254 20.6573 0.075879 0.408013 -0.7568
2010-09-08 07:30:00 51°14.44 2°54.233 20.6805 0.075879 0.408013 -0.721976
2010-09-08 07:30:06 51°14.426 2°54.203 20.6528 0.075879 0.408013 -0.721976
2010-09-08 07:30:11 51°14.414 2°54.178 20.6505 0.075879 0.408019 -0.7568
2010-09-08 07:30:16 51°14.402 2°54.153 20.6353 0.075879 0.408013 -0.7568
2010-09-08 07:30:21 51°14.391 2°54.127 20.6255 0.075879 0.408 -0.7568
2010-09-08 07:30:26 51°14.379 2°54.101 20.6385 0.075879 0.407981 -0.721976
2010-09-08 07:30:31 51°14.368 2°54.076 20.619 0.075879 0.408 -0.721976
2010-09-08 07:30:36 51°14.357 2°54.05 20.6309 0.075879 0.408 -0.721976
2010-09-08 07:30:41 51°14.346 2°54.024 20.5828 0.075879 0.408 -0.7568
2010-09-08 07:30:46 51°14.335 2°53.998 20.6386 0.075879 0.408039 -0.7568
2010-09-08 07:30:51 51°14.324 2°53.972 20.5805 0.075879 0.408039 -0.721976
2010-09-08 07:30:56 51°14.313 2°53.946 20.6013 0.075879 0.408051 -0.721976
2010-09-08 07:31:01 51°14.301 2°53.92 20.6038 0.075879 0.408064 -0.7568
2010-09-08 07:31:06 51°14.29 2°53.894 20.6323 0.075879 0.408064 -0.7568
2010-09-08 07:31:11 51°14.279 2°53.867 20.6118 0.075879 0.408051 -0.7568
2010-09-08 07:31:16 51°14.268 2°53.84 20.6035 0.075879 0.408051 -0.791624
2010-09-08 07:31:21 51°14.257 2°53.814 20.6305 0.075879 0.408045 -0.7568
2010-09-08 07:31:26 51°14.246 2°53.787 20.6173 0.075879 0.408039 -0.791624
2010-09-08 07:31:31 51°14.234 2°53.761 20.6032 0.075879 0.408032 -0.7568
2010-09-08 07:31:36 51°14.223 2°53.734 20.6355 0.075879 0.408032 -0.7568
2010-09-08 07:31:41 51°14.212 2°53.708 20.5712 0.075879 0.408032 -0.7568
2010-09-08 07:31:46 51°14.201 2°53.682 20.6194 0.075879 0.408045 -0.721976
2010-09-08 07:31:51 51°14.189 2°53.655 20.5821 0.075879 0.408039 -0.7568
2010-09-08 07:31:56 51°14.178 2°53.629 20.62 0.075879 0.408058 -0.721976
2010-09-08 07:32:00 51°14.169 2°53.608 20.6169 0.075879 0.408058 -0.7568
2010-09-08 07:32:06 51°14.154 2°53.577 20.6348 0.075879 0.408058 -0.7568
2010-09-08 07:32:11 51°14.143 2°53.55 20.5831 0.075879 0.408045 -0.7568
2010-09-08 07:32:16 51°14.132 2°53.524 20.618 0.075879 0.408064 -0.7568
2010-09-08 07:32:21 51°14.121 2°53.498 20.6066 0.075879 0.408064 -0.7568
2010-09-08 07:32:26 51°14.109 2°53.471 20.6284 0.075879 0.408077 -0.7568
2010-09-08 07:32:31 51°14.098 2°53.444 20.6048 0.075879 0.408064 -0.7568
2010-09-08 07:32:36 51°14.086 2°53.418 20.6209 0.075879 0.408064 -0.7568
2010-09-08 07:32:40 51°14.077 2°53.396 20.5779 0.075879 0.408071 -0.7568
2010-09-08 07:32:46 51°14.063 2°53.365 20.6039 0.075879 0.408077 -0.7568
2010-09-08 07:32:51 51°14.051 2°53.338 20.6 0.075879 0.408071 -0.7568
2010-09-08 07:32:56 51°14.04 2°53.312 20.5735 0.075879 0.408077 -0.7568
2010-09-08 07:33:00 51°14.032 2°53.29 20.6206 0.075879 0.408064 -0.7568
2010-09-08 07:33:06 51°14.019 2°53.257 20.5938 0.075879 0.408064 -0.7568
2010-09-08 07:33:11 51°14.009 2°53.229 20.6126 0.075879 0.408084 -0.7568
2010-09-08 07:33:16 51°13.998 2°53.202 20.6115 0.075879 0.408084 -0.7568
2010-09-08 07:33:21 51°13.988 2°53.174 20.6089 0.075879 0.408096 -0.721976
2010-09-08 07:33:26 51°13.978 2°53.146 20.6207 0.075879 0.408096 -0.721976
2010-09-08 07:33:31 51°13.967 2°53.118 20.6022 0.075879 0.408103 -0.7568
2010-09-08 07:33:36 51°13.957 2°53.089 20.6223 0.075879 0.408103 -0.7568
2010-09-08 07:33:41 51°13.947 2°53.061 20.5844 0.075879 0.408096 -0.791624
2010-09-08 07:33:46 51°13.937 2°53.033 20.6308 0.075879 0.408103 -0.7568
2010-09-08 07:33:51 51°13.927 2°53.005 20.6093 0.075879 0.408103 -0.791624
2010-09-08 07:33:56 51°13.917 2°52.977 20.5902 0.075879 0.408103 -0.7568
2010-09-08 07:34:00 51°13.908 2°52.954 20.6078 0.075879 0.408109 -0.7568
2010-09-08 07:34:06 51°13.896 2°52.92 20.619 0.075879 0.408109 -0.7568
2010-09-08 07:34:11 51°13.886 2°52.892 20.5995 0.075879 0.408103 -0.7568
2010-09-08 07:34:16 51°13.876 2°52.864 20.6236 0.075879 0.408109 -0.7568
2010-09-08 07:34:21 51°13.866 2°52.836 20.6043 0.075879 0.408109 -0.721976
2010-09-08 07:34:26 51°13.856 2°52.807 20.635 0.075879 0.408116 -0.7568
2010-09-08 07:34:31 51°13.845 2°52.779 20.6154 0.075879 0.408116 -0.721976
2010-09-08 07:34:36 51°13.835 2°52.751 20.599 0.075879 0.408116 -0.721976
2010-09-08 07:34:40 51°13.827 2°52.728 20.6288 0.075879 0.408122 -0.721976
2010-09-08 07:34:46 51°13.814 2°52.695 20.6339 0.075879 0.408122 -0.7568
2010-09-08 07:34:51 51°13.804 2°52.667 20.5768 0.075879 0.408129 -0.7568
2010-09-08 07:34:56 51°13.793 2°52.639 20.6135 0.075879 0.408141 -0.7568
2010-09-08 07:35:00 51°13.785 2°52.617 20.6012 0.075879 0.408129 -0.721976
2010-09-08 07:35:06 51°13.772 2°52.583 20.632 0.075879 0.408129 -0.721976
2010-09-08 07:35:11 51°13.762 2°52.555 20.5838 0.075879 0.408141 -0.7568
2010-09-08 07:35:16 51°13.751 2°52.527 20.6119 0.075879 0.408135 -0.7568
2010-09-08 07:35:21 51°13.742 2°52.498 20.601 0.075879 0.408141 -0.7568
2010-09-08 07:35:26 51°13.73 2°52.47 20.6199 0.075879 0.408161 -0.721976
2010-09-08 07:35:31 51°13.721 2°52.442 20.632 0.075879 0.408135 -0.7568
2010-09-08 07:35:36 51°13.71 2°52.414 20.5392 0.075879 0.408135 -0.7568
2010-09-08 07:35:41 51°13.7 2°52.386 20.6739 0.075879 0.408174 -0.7568
2010-09-08 07:35:46 51°13.689 2°52.358 20.5381 0.075879 0.408148 -0.721976
2010-09-08 07:35:51 51°13.678 2°52.331 20.6686 0.075879 0.408199 -0.721976
2010-09-08 07:35:56 51°13.668 2°52.302 20.6049 0.075879 0.408186 -0.721976
2010-09-08 07:36:00 51°13.659 2°52.28 20.6189 0.075879 0.408225 -0.721976
2010-09-08 07:36:06 51°13.647 2°52.246 20.6054 0.075879 0.408225 -0.721976
2010-09-08 07:36:11 51°13.635 2°52.219 20.6305 0.075879 0.408199 -0.721976
2010-09-08 07:36:16 51°13.625 2°52.19 20.6094 0.075879 0.408193 -0.7568
2010-09-08 07:36:21 51°13.614 2°52.162 20.6319 0.075879 0.408167 -0.721976
2010-09-08 07:36:26 51°13.604 2°52.134 20.5935 0.075879 0.408141 -0.7568
2010-09-08 07:36:31 51°13.594 2°52.105 20.6259 0.075879 0.408129 -0.7568
2010-09-08 07:36:36 51°13.584 2°52.076 20.6243 0.075879 0.408129 -0.7568
2010-09-08 07:36:40 51°13.576 2°52.053 20.6178 0.075879 0.408135 -0.7568
2010-09-08 07:36:46 51°13.563 2°52.019 20.5983 0.075879 0.408154 -0.7568
2010-09-08 07:36:51 51°13.555 2°51.989 20.576 0.075879 0.408167 -0.7568
2010-09-08 07:36:56 51°13.545 2°51.96 20.56 0.075879 0.408231 -0.721976
2010-09-08 07:37:00 51°13.538 2°51.936 20.5672 0.075879 0.408219 -0.7568
2010-09-08 07:37:06 51°13.53 2°51.899 20.5517 0.075879 0.408219 -0.7568
2010-09-08 07:37:11 51°13.527 2°51.867 20.5802 0.075879 0.408225 -0.7568
2010-09-08 07:37:16 51°13.525 2°51.836 20.6145 0.075879 0.408238 -0.7568
2010-09-08 07:37:21 51°13.525 2°51.805 20.6354 0.075879 0.408231 -0.7568
2010-09-08 07:37:26 51°13.524 2°51.774 20.668 0.075879 0.408238 -0.721976
2010-09-08 07:37:31 51°13.524 2°51.744 20.7337 0.075879 0.408231 -0.721976
2010-09-08 07:37:36 51°13.521 2°51.717 20.7046 0.075879 0.408231 -0.721976
2010-09-08 07:37:41 51°13.515 2°51.693 20.6714 0.075879 0.408264 -0.7568
2010-09-08 07:37:46 51°13.509 2°51.672 20.6824 0.075879 0.408264 -0.721976
2010-09-08 07:37:51 51°13.503 2°51.652 20.674 0.075879 0.408251 -0.721976
2010-09-08 07:37:56 51°13.496 2°51.635 20.6859 0.075879 0.408251 -0.7568
2010-09-08 07:38:00 51°13.49 2°51.622 20.6817 0.075879 0.408251 -0.721976
2010-09-08 07:38:06 51°13.481 2°51.605 20.6699 0.075879 0.408251 -0.721976
2010-09-08 07:38:11 51°13.473 2°51.592 20.637 0.075879 0.408257 -0.7568
2010-09-08 07:38:16 51°13.466 2°51.581 20.6659 0.075879 0.408283 -0.7568
2010-09-08 07:38:21 51°13.459 2°51.57 20.6835 0.075879 0.408289 -0.7568
2010-09-08 07:38:26 51°13.452 2°51.56 20.6469 0.075879 0.408289 -0.7568
2010-09-08 07:38:31 51°13.445 2°51.553 20.6561 0.075879 0.408289 -0.721976
2010-09-08 07:38:36 51°13.439 2°51.546 20.6731 0.075879 0.408289 -0.721976
2010-09-08 07:38:40 51°13.435 2°51.541 20.6664 0.075879 0.408302 -0.721976
2010-09-08 07:38:46 51°13.429 2°51.536 20.6681 0.075879 0.408302 -0.7568
2010-09-08 07:38:51 51°13.425 2°51.531 20.6826 0.075879 0.408289 -0.7568
2010-09-08 07:38:56 51°13.421 2°51.527 20.6785 0.075879 0.408283 -0.721976
2010-09-08 07:39:01 51°13.417 2°51.523 20.6754 0.075879 0.408276 -0.7568
2010-09-08 07:39:06 51°13.414 2°51.52 20.6714 0.075879 0.408276 -0.7568
2010-09-08 07:39:11 51°13.412 2°51.516 20.677 0.075879 0.408276 -0.721976
2010-09-08 07:39:16 51°13.41 2°51.512 20.6747 0.075879 0.40827 -0.721976
2010-09-08 07:39:21 51°13.408 2°51.509 20.6608 0.075879 0.408276 -0.7568
2010-09-08 07:39:26 51°13.406 2°51.506 20.664 0.075879 0.408283 -0.721976
2010-09-08 07:39:31 51°13.404 2°51.502 20.6573 0.075879 0.408289 -0.721976
2010-09-08 07:39:36 51°13.402 2°51.498 20.6739 0.075879 0.408289 -0.721976
2010-09-08 07:39:40 51°13.401 2°51.495 20.671 0.075879 0.408289 -0.7568
2010-09-08 07:39:46 51°13.399 2°51.491 20.6765 0.075879 0.408315 -0.791624
2010-09-08 07:39:51 51°13.397 2°51.487 20.6753 0.075879 0.408309 -0.7568
2010-09-08 07:39:56 51°13.395 2°51.484 20.6714 0.075879 0.408302 -0.7568
2010-09-08 07:40:01 51°13.394 2°51.48 20.6815 0.075879 0.408302 -0.7568
2010-09-08 07:40:06 51°13.392 2°51.476 20.6868 0.075879 0.408302 -0.7568
2010-09-08 07:40:11 51°13.39 2°51.473 20.669 0.075879 0.408302 -0.7568
2010-09-08 07:40:16 51°13.388 2°51.469 20.6723 0.075879 0.408296 -0.7568
2010-09-08 07:40:20 51°13.387 2°51.467 20.674 0.075879 0.408289 -0.7568
2010-09-08 07:40:26 51°13.384 2°51.462 20.6744 0.075879 0.408302 -0.7568
2010-09-08 07:40:31 51°13.383 2°51.459 20.6801 0.075879 0.408309 -0.791624
2010-09-08 07:40:36 51°13.381 2°51.455 20.6763 0.075879 0.408309 -0.791624
2010-09-08 07:40:40 51°13.38 2°51.453 20.6712 0.075879 0.408321 -0.7568
2010-09-08 07:40:46 51°13.377 2°51.448 20.6559 0.075879 0.408334 -0.721976
2010-09-08 07:40:51 51°13.376 2°51.445 20.6708 0.075879 0.408341 -0.7568
2010-09-08 07:40:56 51°13.374 2°51.441 20.6837 0.075879 0.408354 -0.7568
2010-09-08 07:41:01 51°13.372 2°51.438 20.6851 0.075879 0.408354 -0.721976
2010-09-08 07:41:06 51°13.37 2°51.434 20.658 0.075879 0.408354 -0.721976
2010-09-08 07:41:11 51°13.369 2°51.431 20.6665 0.075879 0.40836 -0.7568
2010-09-08 07:41:16 51°13.367 2°51.427 20.6848 0.075879 0.408354 -0.7568
2010-09-08 07:41:21 51°13.365 2°51.424 20.6836 0.075879 0.408354 -0.7568
2010-09-08 07:41:26 51°13.363 2°51.42 20.5679 0.075879 0.40836 -0.7568
2010-09-08 07:41:31 51°13.361 2°51.417 20.598 0.075879 0.408354 -0.7568
2010-09-08 07:41:36 51°13.359 2°51.413 20.601 0.075879 0.408354 -0.7568
2010-09-08 07:41:40 51°13.358 2°51.41 20.6072 0.075879 0.408366 -0.721976
2010-09-08 07:41:46 51°13.356 2°51.406 20.6057 0.075879 0.40836 -0.721976
2010-09-08 07:41:51 51°13.354 2°51.402 20.605 0.075879 0.408373 -0.7568
2010-09-08 07:41:56 51°13.352 2°51.399 20.6139 0.075879 0.408379 -0.791624
2010-09-08 07:42:01 51°13.35 2°51.395 20.6157 0.075879 0.408386 -0.7568
2010-09-08 07:42:06 51°13.348 2°51.392 20.6187 0.075879 0.408386 -0.7568
2010-09-08 07:42:11 51°13.346 2°51.388 20.6221 0.075879 0.408392 -0.7568
2010-09-08 07:42:16 51°13.344 2°51.385 20.6245 0.075879 0.408392 -0.7568
2010-09-08 07:42:21 51°13.342 2°51.381 20.6264 0.075879 0.408399 -0.7568
2010-09-08 07:42:26 51°13.34 2°51.378 20.6279 0.075879 0.408399 -0.791624
2010-09-08 07:42:31 51°13.338 2°51.374 20.6309 0.075879 0.408399 -0.7568
2010-09-08 07:42:36 51°13.337 2°51.37 20.6334 0.075879 0.408399 -0.7568
2010-09-08 07:42:41 51°13.335 2°51.366 20.6344 0.075879 0.408405 -0.791624
2010-09-08 07:42:46 51°13.333 2°51.363 20.6326 0.075879 0.408405 -0.721976
2010-09-08 07:42:51 51°13.331 2°51.359 20.6364 0.075879 0.408418 -0.7568
2010-09-08 07:42:56 51°13.329 2°51.356 20.6381 0.075879 0.408418 -0.721976
2010-09-08 07:43:01 51°13.327 2°51.352 20.6389 0.075879 0.408418 -0.7568
2010-09-08 07:43:06 51°13.325 2°51.348 20.6411 0.075879 0.408418 -0.7568
2010-09-08 07:43:11 51°13.323 2°51.345 20.642 0.075879 0.408424 -0.721976
2010-09-08 07:43:16 51°13.321 2°51.341 20.6435 0.075879 0.408424 -0.7568
2010-09-08 07:43:21 51°13.319 2°51.337 20.6442 0.075879 0.408431 -0.7568
2010-09-08 07:43:26 51°13.317 2°51.333 20.6441 0.075879 0.408431 -0.7568
2010-09-08 07:43:31 51°13.315 2°51.33 20.6468 0.075879 0.408437 -0.7568
2010-09-08 07:43:36 51°13.314 2°51.326 20.6471 0.075879 0.408437 -0.7568
2010-09-08 07:43:40 51°13.312 2°51.324 20.648 0.075775 0.407858 -0.7568
2010-09-08 07:43:46 51°13.309 2°51.319 20.6512 0.075775 0.407864 -0.7568
2010-09-08 07:43:51 51°13.308 2°51.315 20.6533 0.075879 0.40845 -0.7568
2010-09-08 07:43:56 51°13.305 2°51.312 20.6537 0.075879 0.40845 -0.7568
2010-09-08 07:44:01 51°13.304 2°51.308 20.6544 0.075879 0.408444 -0.721976
2010-09-08 07:44:06 51°13.302 2°51.305 20.6555 0.075879 0.408444 -0.721976
2010-09-08 07:44:11 51°13.3 2°51.301 20.6534 0.075879 0.408457 -0.7568
2010-09-08 07:44:16 51°13.298 2°51.298 20.6584 0.075879 0.408457 -0.7568
2010-09-08 07:44:21 51°13.296 2°51.294 20.6609 0.075879 0.408457 -0.7568
2010-09-08 07:44:26 51°13.294 2°51.29 20.6607 0.075879 0.408469 -0.7568
2010-09-08 07:44:31 51°13.292 2°51.287 20.657 0.075879 0.408476 -0.721976
2010-09-08 07:44:36 51°13.29 2°51.283 20.66 0.075879 0.408476 -0.721976
2010-09-08 07:44:41 51°13.288 2°51.28 20.6653 0.075879 0.408476 -0.791624
2010-09-08 07:44:46 51°13.286 2°51.276 20.6634 0.075879 0.408476 -0.7568
2010-09-08 07:44:51 51°13.284 2°51.273 20.6681 0.075879 0.408482 -0.7568
2010-09-08 07:44:56 51°13.282 2°51.269 20.6713 0.075879 0.408482 -0.7568
2010-09-08 07:45:01 51°13.28 2°51.265 20.6698 0.075775 0.407909 -0.791624
2010-09-08 07:45:06 51°13.277 2°51.262 20.6731 0.075775 0.407909 -0.791624
2010-09-08 07:45:11 51°13.275 2°51.258 20.6733 0.075775 0.407916 -0.7568
2010-09-08 07:45:16 51°13.273 2°51.254 20.6761 0.075879 0.408502 -0.7568
2010-09-08 07:45:21 51°13.271 2°51.25 20.6718 0.075879 0.408502 -0.791624
2010-09-08 07:45:26 51°13.269 2°51.247 20.6753 0.075879 0.408508 -0.7568
2010-09-08 07:45:31 51°13.266 2°51.243 20.6759 0.075775 0.407929 -0.7568
2010-09-08 07:45:36 51°13.264 2°51.24 20.6781 0.075775 0.407929 -0.7568
2010-09-08 07:45:40 51°13.263 2°51.237 20.6833 0.075879 0.408514 -0.721976
2010-09-08 07:45:46 51°13.26 2°51.232 20.6838 0.075879 0.408514 -0.791624
2010-09-08 07:45:51 51°13.258 2°51.229 20.6832 0.075775 0.407948 -0.721976
2010-09-08 07:45:56 51°13.256 2°51.225 20.6856 0.075775 0.407948 -0.721976
2010-09-08 07:46:01 51°13.254 2°51.222 20.6865 0.075775 0.407948 -0.7568
2010-09-08 07:46:06 51°13.252 2°51.218 20.6879 0.075775 0.407948 -0.7568
2010-09-08 07:46:11 51°13.25 2°51.215 20.6869 0.075775 0.407955 -0.7568
2010-09-08 07:46:16 51°13.248 2°51.211 20.6913 0.075879 0.408527 -0.7568
2010-09-08 07:46:20 51°13.246 2°51.208 20.6913 0.075775 0.407961 -0.721976
2010-09-08 07:46:26 51°13.243 2°51.203 20.6922 0.075775 0.407961 -0.791624
2010-09-08 07:46:31 51°13.241 2°51.2 20.6936 0.075775 0.407974 -0.721976
2010-09-08 07:46:36 51°13.239 2°51.196 20.6985 0.075775 0.407974 -0.721976
2010-09-08 07:46:40 51°13.237 2°51.194 20.6982 0.075775 0.407967 -0.7568
2010-09-08 07:46:46 51°13.235 2°51.189 20.7001 0.075775 0.407974 -0.7568
2010-09-08 07:46:51 51°13.233 2°51.185 20.7 0.075775 0.40798 -0.721976
2010-09-08 07:46:56 51°13.231 2°51.181 20.7003 0.075775 0.407987 -0.721976
2010-09-08 07:47:01 51°13.229 2°51.177 20.7037 0.075775 0.407987 -0.721976
2010-09-08 07:47:06 51°13.226 2°51.174 20.7061 0.075775 0.407987 -0.721976
2010-09-08 07:47:11 51°13.224 2°51.17 20.7085 0.075775 0.407993 -0.7568
2010-09-08 07:47:16 51°13.222 2°51.166 20.7126 0.075775 0.408006 -0.7568
2010-09-08 07:47:21 51°13.22 2°51.162 20.7111 0.075775 0.408006 -0.7568
2010-09-08 07:47:26 51°13.218 2°51.159 20.7119 0.075879 0.408585 -0.7568
2010-09-08 07:47:31 51°13.216 2°51.155 20.7099 0.075775 0.408006 -0.721976
2010-09-08 07:47:36 51°13.214 2°51.151 20.7159 0.075775 0.408006 -0.721976
2010-09-08 07:47:41 51°13.212 2°51.147 20.7194 0.075775 0.408012 -0.791624
2010-09-08 07:47:46 51°13.21 2°51.144 20.7195 0.075775 0.408019 -0.7568
2010-09-08 07:47:51 51°13.207 2°51.139 20.7232 0.075775 0.408032 -0.7568
2010-09-08 07:47:56 51°13.205 2°51.136 20.7222 0.075775 0.408025 -0.7568
2010-09-08 07:48:00 51°13.204 2°51.133 20.7231 0.075775 0.408032 -0.7568
2010-09-08 07:48:06 51°13.201 2°51.128 20.7191 0.075775 0.408032 -0.7568
2010-09-08 07:48:11 51°13.199 2°51.124 20.7279 0.075775 0.408032 -0.7568
2010-09-08 07:48:16 51°13.197 2°51.12 20.7276 0.075775 0.408032 -0.7568
2010-09-08 07:48:21 51°13.195 2°51.117 20.725 0.075775 0.408045 -0.791624
2010-09-08 07:48:26 51°13.193 2°51.113 20.7263 0.075775 0.408045 -0.7568
2010-09-08 07:48:31 51°13.191 2°51.109 20.7238 0.075775 0.408051 -0.7568
2010-09-08 07:48:36 51°13.189 2°51.105 20.7291 0.075775 0.408051 -0.7568
2010-09-08 07:48:40 51°13.187 2°51.102 20.7337 0.075775 0.408057 -0.791624
2010-09-08 07:48:46 51°13.185 2°51.097 20.7396 0.075775 0.408057 -0.7568
2010-09-08 07:48:51 51°13.182 2°51.093 20.7415 0.075775 0.408064 -0.791624
2010-09-08 07:48:56 51°13.181 2°51.089 20.7408 0.075775 0.40807 -0.721976
2010-09-08 07:49:00 51°13.179 2°51.086 20.7346 0.075775 0.40807 -0.791624
2010-09-08 07:49:06 51°13.176 2°51.081 20.7414 0.075775 0.40807 -0.791624
2010-09-08 07:49:11 51°13.174 2°51.078 20.7421 0.075775 0.408077 -0.687152
2010-09-08 07:49:16 51°13.172 2°51.074 20.7405 0.075775 0.408077 -0.721976
2010-09-08 07:49:21 51°13.17 2°51.07 20.7483 0.075775 0.40809 -0.721976
2010-09-08 07:49:26 51°13.168 2°51.066 20.7464 0.075775 0.40809 -0.721976
2010-09-08 07:49:31 51°13.166 2°51.062 20.7486 0.075775 0.408096 -0.721976
2010-09-08 07:49:36 51°13.164 2°51.058 20.746 0.075775 0.408096 -0.721976
2010-09-08 07:49:41 51°13.162 2°51.054 20.7449 0.075775 0.408102 -0.721976
2010-09-08 07:49:46 51°13.16 2°51.05 20.7576 0.075775 0.408109 -0.721976
2010-09-08 07:49:51 51°13.158 2°51.046 20.7568 0.075775 0.408109 -0.7568
2010-09-08 07:49:56 51°13.156 2°51.042 20.7554 0.075775 0.408122 -0.721976
2010-09-08 07:50:01 51°13.154 2°51.039 20.7611 0.075775 0.408122 -0.7568
2010-09-08 07:50:06 51°13.152 2°51.035 20.7627 0.075775 0.408122 -0.7568
2010-09-08 07:50:11 51°13.15 2°51.031 20.7647 0.075775 0.408122 -0.7568
2010-09-08 07:50:16 51°13.148 2°51.027 20.7662 0.075775 0.408122 -0.7568
2010-09-08 07:50:21 51°13.146 2°51.023 20.766 0.075775 0.408128 -0.721976
2010-09-08 07:50:26 51°13.144 2°51.019 20.7651 0.075775 0.408141 -0.7568
2010-09-08 07:50:31 51°13.142 2°51.015 20.7689 0.075775 0.408141 -0.7568
2010-09-08 07:50:36 51°13.14 2°51.011 20.7632 0.075775 0.408141 -0.7568
2010-09-08 07:50:41 51°13.138 2°51.007 20.7743 0.075775 0.408141 -0.7568
2010-09-08 07:50:46 51°13.136 2°51.003 20.7764 0.075775 0.408148 -0.7568
2010-09-08 07:50:51 51°13.134 2°50.999 20.7784 0.075775 0.40816 -0.721976
2010-09-08 07:50:56 51°13.132 2°50.995 20.778 0.075775 0.40816 -0.7568
2010-09-08 07:51:01 51°13.13 2°50.992 20.7768 0.075775 0.408167 -0.7568
2010-09-08 07:51:06 51°13.128 2°50.988 20.7751 0.075775 0.408167 -0.7568
2010-09-08 07:51:11 51°13.127 2°50.984 20.7827 0.075775 0.408173 -0.721976
2010-09-08 07:51:16 51°13.124 2°50.98 20.7847 0.075775 0.40818 -0.7568
2010-09-08 07:51:21 51°13.122 2°50.976 20.7806 0.075775 0.408173 -0.7568
2010-09-08 07:51:26 51°13.12 2°50.972 20.785 0.075775 0.408186 -0.721976
2010-09-08 07:51:31 51°13.118 2°50.969 20.7857 0.075775 0.408193 -0.7568
2010-09-08 07:51:36 51°13.116 2°50.965 20.7892 0.075775 0.408193 -0.7568
2010-09-08 07:51:41 51°13.114 2°50.961 20.7889 0.075775 0.408193 -0.721976
2010-09-08 07:51:46 51°13.112 2°50.957 20.7921 0.075775 0.408199 -0.7568
2010-09-08 07:51:51 51°13.11 2°50.953 20.795 0.075775 0.408206 -0.7568
2010-09-08 07:51:56 51°13.108 2°50.949 20.7993 0.075775 0.408206 -0.791624
2010-09-08 07:52:01 51°13.106 2°50.946 20.8009 0.075775 0.408206 -0.791624
2010-09-08 07:52:06 51°13.104 2°50.941 20.7998 0.075775 0.408206 -0.791624
2010-09-08 07:52:11 51°13.102 2°50.937 20.8015 0.075775 0.408206 -0.721976
2010-09-08 07:52:16 51°13.101 2°50.933 20.8022 0.075775 0.408218 -0.791624
2010-09-08 07:52:21 51°13.098 2°50.93 20.7955 0.075775 0.408225 -0.7568
2010-09-08 07:52:26 51°13.096 2°50.926 20.8074 0.075775 0.408225 -0.7568
2010-09-08 07:52:31 51°13.094 2°50.922 20.8045 0.075775 0.408231 -0.7568
2010-09-08 07:52:36 51°13.093 2°50.918 20.8085 0.075775 0.408231 -0.7568
2010-09-08 07:52:41 51°13.091 2°50.914 20.8098 0.075775 0.408238 -0.7568
2010-09-08 07:52:46 51°13.089 2°50.91 20.8094 0.075775 0.408244 -0.7568
2010-09-08 07:52:51 51°13.087 2°50.906 20.8085 0.075775 0.408244 -0.7568
2010-09-08 07:52:56 51°13.085 2°50.903 20.8127 0.075775 0.408257 -0.721976
2010-09-08 07:53:01 51°13.083 2°50.899 20.8151 0.075775 0.408263 -0.721976
2010-09-08 07:53:06 51°13.081 2°50.895 20.8181 0.075775 0.408263 -0.721976
2010-09-08 07:53:11 51°13.079 2°50.891 20.8212 0.075775 0.408263 -0.7568
2010-09-08 07:53:16 51°13.077 2°50.887 20.8221 0.075775 0.40827 -0.721976
2010-09-08 07:53:21 51°13.075 2°50.883 20.8158 0.075775 0.408276 -0.7568
2010-09-08 07:53:26 51°13.073 2°50.879 20.8215 0.075775 0.408276 -0.791624
2010-09-08 07:53:31 51°13.071 2°50.876 20.8213 0.075775 0.408276 -0.791624
2010-09-08 07:53:36 51°13.069 2°50.872 20.8213 0.075775 0.408276 -0.791624
2010-09-08 07:53:41 51°13.067 2°50.868 20.8245 0.075775 0.408289 -0.791624
2010-09-08 07:53:46 51°13.065 2°50.864 20.8278 0.075775 0.408296 -0.721976
2010-09-08 07:53:51 51°13.063 2°50.86 20.8202 0.075775 0.408296 -0.7568
2010-09-08 07:53:56 51°13.061 2°50.856 20.8199 0.075775 0.408302 -0.7568
2010-09-08 07:54:01 51°13.059 2°50.852 20.8301 0.075775 0.408309 -0.7568
2010-09-08 07:54:06 51°13.057 2°50.848 20.8387 0.075775 0.408309 -0.7568
2010-09-08 07:54:11 51°13.055 2°50.844 20.8339 0.075775 0.408309 -0.7568
2010-09-08 07:54:16 51°13.053 2°50.84 20.8342 0.075775 0.408315 -0.7568
2010-09-08 07:54:21 51°13.05 2°50.835 20.839 0.075775 0.408321 -0.7568
2010-09-08 07:54:26 51°13.048 2°50.831 20.8437 0.075775 0.408328 -0.7568
2010-09-08 07:54:31 51°13.045 2°50.826 20.8467 0.075775 0.408321 -0.7568
2010-09-08 07:54:36 51°13.042 2°50.822 20.8426 0.075775 0.408321 -0.7568
2010-09-08 07:54:41 51°13.039 2°50.818 20.8435 0.075775 0.408334 -0.721976
2010-09-08 07:54:46 51°13.036 2°50.813 20.8515 0.075775 0.408334 -0.791624
2010-09-08 07:54:51 51°13.033 2°50.809 20.8528 0.075775 0.408341 -0.721976
2010-09-08 07:54:56 51°13.03 2°50.805 20.8481 0.075775 0.408341 -0.7568
2010-09-08 07:55:00 51°13.028 2°50.801 20.8511 0.075775 0.40836 -0.721976
2010-09-08 07:55:06 51°13.025 2°50.796 20.8553 0.075775 0.40836 -0.721976
2010-09-08 07:55:11 51°13.022 2°50.792 20.8583 0.075775 0.40836 -0.721976
2010-09-08 07:55:16 51°13.018 2°50.788 20.8589 0.075775 0.408367 -0.7568
2010-09-08 07:55:21 51°13.015 2°50.784 20.8559 0.075775 0.408373 -0.721976
2010-09-08 07:55:26 51°13.012 2°50.78 20.8649 0.075775 0.408367 -0.7568
2010-09-08 07:55:31 51°13.009 2°50.776 20.8658 0.075775 0.408379 -0.721976
2010-09-08 07:55:36 51°13.006 2°50.772 20.8712 0.075775 0.408379 -0.721976
2010-09-08 07:55:41 51°13.002 2°50.769 20.8707 0.075775 0.408386 -0.7568
2010-09-08 07:55:46 51°12.999 2°50.766 20.8724 0.075775 0.408386 -0.721976
2010-09-08 07:55:51 51°12.995 2°50.762 20.8722 0.075775 0.408386 -0.7568
2010-09-08 07:55:56 51°12.992 2°50.759 20.8764 0.075775 0.408399 -0.7568
2010-09-08 07:56:01 51°12.988 2°50.756 20.8792 0.075775 0.408392 -0.7568
2010-09-08 07:56:06 51°12.984 2°50.753 20.88 0.075775 0.408392 -0.7568
2010-09-08 07:56:11 51°12.98 2°50.75 20.8827 0.075775 0.408399 -0.721976
2010-09-08 07:56:16 51°12.975 2°50.747 20.8867 0.075775 0.408399 -0.721976
2010-09-08 07:56:21 51°12.97 2°50.745 20.8897 0.075775 0.408405 -0.721976
2010-09-08 07:56:26 51°12.965 2°50.743 20.8861 0.075775 0.408412 -0.791624
2010-09-08 07:56:31 51°12.959 2°50.74 20.8861 0.075775 0.408412 -0.721976
2010-09-08 07:56:36 51°12.954 2°50.738 20.8866 0.075775 0.408412 -0.721976
2010-09-08 07:56:41 51°12.948 2°50.736 20.8828 0.075775 0.408418 -0.7568
2010-09-08 07:56:46 51°12.941 2°50.733 20.8916 0.075775 0.408418 -0.7568
2010-09-08 07:56:51 51°12.934 2°50.731 20.8918 0.075775 0.408418 -0.721976
2010-09-08 07:56:56 51°12.927 2°50.728 20.8907 0.075775 0.408418 -0.791624
2010-09-08 07:57:00 51°12.921 2°50.725 20.8858 0.075775 0.408425 -0.7568
2010-09-08 07:57:06 51°12.912 2°50.721 20.8948 0.075775 0.408425 -0.7568
2010-09-08 07:57:11 51°12.904 2°50.717 20.8727 0.075775 0.408431 -0.791624
2010-09-08 07:57:16 51°12.897 2°50.712 20.8759 0.075775 0.408438 -0.7568
2010-09-08 07:57:21 51°12.889 2°50.707 20.8934 0.075775 0.408444 -0.7568
2010-09-08 07:57:26 51°12.881 2°50.702 20.8837 0.075775 0.408457 -0.7568
2010-09-08 07:57:31 51°12.874 2°50.696 20.8862 0.075775 0.408463 -0.7568
2010-09-08 07:57:36 51°12.867 2°50.689 20.8981 0.075775 0.408463 -0.7568
2010-09-08 07:57:41 51°12.859 2°50.683 20.9037 0.075775 0.40847 -0.7568
2010-09-08 07:57:46 51°12.852 2°50.676 20.903 0.075775 0.408476 -0.721976
2010-09-08 07:57:51 51°12.845 2°50.669 20.902 0.075775 0.408483 -0.7568
2010-09-08 07:57:56 51°12.838 2°50.663 20.9008 0.075775 0.408483 -0.7568
2010-09-08 07:58:01 51°12.831 2°50.656 20.9031 0.075775 0.408489 -0.7568
2010-09-08 07:58:06 51°12.825 2°50.649 20.9128 0.075775 0.408489 -0.7568
2010-09-08 07:58:11 51°12.818 2°50.642 20.9116 0.075775 0.408496 -0.791624
2010-09-08 07:58:16 51°12.811 2°50.635 20.9139 0.075775 0.408496 -0.791624
2010-09-08 07:58:21 51°12.805 2°50.628 20.915 0.075775 0.408496 -0.7568
2010-09-08 07:58:26 51°12.799 2°50.62 20.9196 0.075775 0.408502 -0.7568
2010-09-08 07:58:31 51°12.793 2°50.613 20.9183 0.075775 0.408508 -0.7568
2010-09-08 07:58:36 51°12.787 2°50.606 20.9208 0.075775 0.408508 -0.7568
2010-09-08 07:58:41 51°12.781 2°50.6 20.9232 0.075775 0.408508 -0.7568
2010-09-08 07:58:46 51°12.775 2°50.593 20.9271 0.075775 0.408521 -0.7568
2010-09-08 07:58:51 51°12.769 2°50.586 20.9301 0.075775 0.408515 -0.791624
2010-09-08 07:58:56 51°12.763 2°50.58 20.9347 0.075775 0.408515 -0.721976
2010-09-08 07:59:00 51°12.759 2°50.574 20.9298 0.075775 0.408521 -0.7568
2010-09-08 07:59:06 51°12.752 2°50.567 20.9307 0.075775 0.408521 -0.7568
2010-09-08 07:59:11 51°12.746 2°50.561 20.9381 0.075775 0.408521 -0.791624
2010-09-08 07:59:16 51°12.741 2°50.554 20.9387 0.075775 0.408521 -0.721976
2010-09-08 07:59:21 51°12.735 2°50.547 20.9405 0.075775 0.408528 -0.721976
2010-09-08 07:59:26 51°12.73 2°50.542 20.9279 0.075775 0.408534 -0.7568
2010-09-08 07:59:31 51°12.724 2°50.536 20.9299 0.075775 0.408541 -0.721976
2010-09-08 07:59:36 51°12.719 2°50.53 20.9406 0.075775 0.408541 -0.721976
2010-09-08 07:59:41 51°12.714 2°50.524 20.9457 0.075775 0.408541 -0.7568
2010-09-08 07:59:46 51°12.709 2°50.518 20.9417 0.075775 0.408547 -0.721976
2010-09-08 07:59:51 51°12.703 2°50.513 20.9533 0.075775 0.408547 -0.7568
2010-09-08 07:59:56 51°12.698 2°50.507 20.9519 0.075775 0.408554 -0.7568
2010-09-08 08:00:01 51°12.693 2°50.501 20.946 0.075775 0.40856 -0.7568
2010-09-08 08:00:06 51°12.689 2°50.495 20.9411 0.075775 0.40856 -0.7568
2010-09-08 08:00:11 51°12.684 2°50.489 20.9504 0.075775 0.408554 -0.721976
2010-09-08 08:00:16 51°12.678 2°50.483 20.9576 0.075775 0.40856 -0.7568
2010-09-08 08:00:20 51°12.675 2°50.479 20.9572 0.075775 0.408567 -0.7568
2010-09-08 08:00:26 51°12.669 2°50.472 20.9623 0.075671 0.407993 -0.721976
2010-09-08 08:00:31 51°12.664 2°50.466 20.9643 0.075775 0.408573 -0.7568
2010-09-08 08:00:36 51°12.66 2°50.46 20.9641 0.075775 0.408573 -0.7568
2010-09-08 08:00:41 51°12.655 2°50.454 20.9667 0.075775 0.408573 -0.721976
2010-09-08 08:00:46 51°12.65 2°50.448 20.9692 0.075671 0.407999 -0.7568
2010-09-08 08:00:51 51°12.646 2°50.442 20.9713 0.075775 0.408586 -0.791624
2010-09-08 08:00:56 51°12.641 2°50.437 20.9731 0.075775 0.408592 -0.7568
2010-09-08 08:01:01 51°12.636 2°50.431 20.9751 0.075671 0.408012 -0.7568
2010-09-08 08:01:06 51°12.631 2°50.425 20.9735 0.075671 0.408012 -0.7568
2010-09-08 08:01:11 51°12.627 2°50.419 20.9735 0.075671 0.408025 -0.7568
2010-09-08 08:01:16 51°12.622 2°50.413 20.9721 0.075671 0.408025 -0.7568
2010-09-08 08:01:21 51°12.618 2°50.407 20.9752 0.075775 0.408605 -0.7568
2010-09-08 08:01:26 51°12.613 2°50.401 20.976 0.075775 0.408612 -0.791624
2010-09-08 08:01:31 51°12.609 2°50.395 20.985 0.075671 0.408038 -0.7568
2010-09-08 08:01:36 51°12.604 2°50.388 20.9815 0.075671 0.408038 -0.7568
2010-09-08 08:01:41 51°12.6 2°50.382 20.9912 0.075775 0.408618 -0.721976
2010-09-08 08:01:46 51°12.596 2°50.375 20.9912 0.075671 0.408038 -0.7568
2010-09-08 08:01:51 51°12.591 2°50.369 20.9913 0.075775 0.408625 -0.7568
2010-09-08 08:01:56 51°12.587 2°50.362 20.9976 0.075671 0.408051 -0.721976
2010-09-08 08:02:00 51°12.584 2°50.357 20.9969 0.075671 0.408057 -0.7568
2010-09-08 08:02:06 51°12.579 2°50.349 21.001 0.075671 0.408057 -0.7568
2010-09-08 08:02:11 51°12.574 2°50.342 21.0032 0.075671 0.408057 -0.7568
2010-09-08 08:02:16 51°12.57 2°50.335 21.008 0.075775 0.408644 -0.721976
2010-09-08 08:02:20 51°12.567 2°50.329 21.0047 0.075671 0.408064 -0.7568
2010-09-08 08:02:26 51°12.562 2°50.321 21.0123 0.075671 0.408077 -0.7568
2010-09-08 08:02:31 51°12.558 2°50.314 21.009 0.075671 0.40807 -0.7568
2010-09-08 08:02:36 51°12.554 2°50.307 21.0038 0.075671 0.40807 -0.7568
2010-09-08 08:02:41 51°12.55 2°50.3 21.0034 0.075671 0.40807 -0.721976
2010-09-08 08:02:46 51°12.546 2°50.293 21.0047 0.075671 0.408077 -0.7568
2010-09-08 08:02:51 51°12.542 2°50.286 21.0046 0.075671 0.408083 -0.7568
2010-09-08 08:02:56 51°12.538 2°50.279 21.0128 0.075671 0.40809 -0.7568
2010-09-08 08:03:01 51°12.534 2°50.272 21.0099 0.075671 0.408096 -0.721976
2010-09-08 08:03:06 51°12.53 2°50.265 21.0237 0.075671 0.408096 -0.721976
2010-09-08 08:03:11 51°12.526 2°50.258 21.0118 0.075671 0.408096 -0.7568
2010-09-08 08:03:16 51°12.522 2°50.25 21.0124 0.075671 0.408102 -0.791624
2010-09-08 08:03:21 51°12.518 2°50.243 21.0148 0.075775 0.408676 -0.7568
2010-09-08 08:03:26 51°12.514 2°50.236 21.0161 0.075671 0.408102 -0.7568
2010-09-08 08:03:31 51°12.51 2°50.228 21.0224 0.075671 0.408102 -0.791624
2010-09-08 08:03:36 51°12.506 2°50.221 21.0229 0.075671 0.408102 -0.791624
2010-09-08 08:03:41 51°12.503 2°50.213 21.0211 0.075671 0.408109 -0.721976
2010-09-08 08:03:46 51°12.499 2°50.206 21.0311 0.075671 0.408115 -0.721976
2010-09-08 08:03:51 51°12.495 2°50.198 21.029 0.075671 0.408115 -0.721976
2010-09-08 08:03:56 51°12.492 2°50.19 21.0366 0.075671 0.408122 -0.721976
2010-09-08 08:04:01 51°12.488 2°50.183 21.0412 0.075671 0.408128 -0.721976
2010-09-08 08:04:06 51°12.484 2°50.175 21.0435 0.075671 0.408128 -0.721976
2010-09-08 08:04:11 51°12.481 2°50.167 21.0435 0.075671 0.408122 -0.7568
2010-09-08 08:04:16 51°12.477 2°50.16 21.0471 0.075671 0.408128 -0.7568
2010-09-08 08:04:20 51°12.475 2°50.153 21.0514 0.075671 0.408135 -0.7568
2010-09-08 08:04:26 51°12.47 2°50.144 21.0513 0.075671 0.408135 -0.721976
2010-09-08 08:04:31 51°12.467 2°50.136 21.0457 0.075671 0.408141 -0.721976
2010-09-08 08:04:36 51°12.463 2°50.128 21.043 0.075671 0.408141 -0.721976
2010-09-08 08:04:41 51°12.46 2°50.12 21.0529 0.075671 0.408148 -0.7568
2010-09-08 08:04:46 51°12.457 2°50.112 21.0533 0.075671 0.408141 -0.7568
2010-09-08 08:04:51 51°12.454 2°50.104 21.0509 0.075671 0.408148 -0.721976
2010-09-08 08:04:56 51°12.45 2°50.095 21.0502 0.075671 0.40816 -0.7568
2010-09-08 08:05:00 51°12.448 2°50.089 21.0493 0.075671 0.408154 -0.7568
2010-09-08 08:05:06 51°12.444 2°50.079 21.0487 0.075671 0.408154 -0.7568
2010-09-08 08:05:11 51°12.441 2°50.071 21.0634 0.075671 0.408148 -0.7568
2010-09-08 08:05:16 51°12.438 2°50.062 21.0621 0.075671 0.40816 -0.791624
2010-09-08 08:05:21 51°12.434 2°50.054 21.0664 0.075671 0.408167 -0.7568
2010-09-08 08:05:26 51°12.431 2°50.046 21.0699 0.075671 0.408167 -0.7568
2010-09-08 08:05:31 51°12.428 2°50.038 21.0688 0.075671 0.408167 -0.7568
2010-09-08 08:05:36 51°12.425 2°50.031 21.0692 0.075671 0.408167 -0.7568
2010-09-08 08:05:41 51°12.423 2°50.026 21.0767 0.075671 0.408167 -0.7568
2010-09-08 08:05:46 51°12.421 2°50.021 21.0783 0.075671 0.408173 -0.7568
2010-09-08 08:05:51 51°12.416 2°50.009 21.0815 0.075671 0.40818 -0.7568
2010-09-08 08:05:56 51°12.412 2°50 21.0825 0.075671 0.40818 -0.7568
2010-09-08 08:06:01 51°12.409 2°49.991 21.0805 0.075671 0.408186 -0.721976
2010-09-08 08:06:06 51°12.406 2°49.983 21.0797 0.075671 0.408186 -0.721976
2010-09-08 08:06:11 51°12.402 2°49.975 21.0802 0.075671 0.408186 -0.721976
2010-09-08 08:06:16 51°12.399 2°49.967 21.086 0.075671 0.408193 -0.721976
2010-09-08 08:06:20 51°12.397 2°49.961 21.0864 0.075671 0.408193 -0.7568
2010-09-08 08:06:26 51°12.393 2°49.951 21.0814 0.075671 0.408193 -0.7568
2010-09-08 08:06:31 51°12.39 2°49.943 21.0853 0.075671 0.408199 -0.7568
2010-09-08 08:06:36 51°12.387 2°49.935 21.0948 0.075671 0.408199 -0.7568
2010-09-08 08:06:40 51°12.384 2°49.929 21.0952 0.075671 0.408206 -0.7568
2010-09-08 08:06:46 51°12.38 2°49.919 21.0955 0.075671 0.408206 -0.7568
2010-09-08 08:06:51 51°12.377 2°49.911 21.0949 0.075671 0.408206 -0.7568
2010-09-08 08:06:56 51°12.374 2°49.903 21.0905 0.075671 0.408212 -0.7568
2010-09-08 08:07:00 51°12.371 2°49.897 21.0954 0.075671 0.408212 -0.7568
2010-09-08 08:07:06 51°12.367 2°49.887 21.1005 0.075671 0.408212 -0.7568
2010-09-08 08:07:11 51°12.364 2°49.879 21.1017 0.075671 0.408219 -0.7568
2010-09-08 08:07:16 51°12.36 2°49.871 21.0991 0.075671 0.408219 -0.7568
2010-09-08 08:07:20 51°12.358 2°49.865 21.097 0.075671 0.408225 -0.791624
2010-09-08 08:07:26 51°12.354 2°49.855 21.0998 0.075671 0.408225 -0.7568
2010-09-08 08:07:31 51°12.351 2°49.847 21.1074 0.075671 0.408225 -0.7568
2010-09-08 08:07:36 51°12.347 2°49.839 21.1098 0.075671 0.408225 -0.7568
2010-09-08 08:07:40 51°12.345 2°49.833 21.1126 0.075671 0.408238 -0.7568
2010-09-08 08:07:46 51°12.341 2°49.823 21.1107 0.075671 0.408238 -0.791624
2010-09-08 08:07:51 51°12.337 2°49.815 21.1166 0.075671 0.408244 -0.7568
2010-09-08 08:07:56 51°12.334 2°49.807 21.1136 0.075671 0.408244 -0.7568
2010-09-08 08:08:01 51°12.331 2°49.799 21.1225 0.075671 0.408244 -0.721976
2010-09-08 08:08:06 51°12.328 2°49.791 21.1235 0.075671 0.408244 -0.721976
2010-09-08 08:08:11 51°12.324 2°49.783 21.116 0.075671 0.408251 -0.7568
2010-09-08 08:08:16 51°12.321 2°49.775 21.1212 0.075671 0.408257 -0.721976
2010-09-08 08:08:21 51°12.318 2°49.767 21.1225 0.075671 0.408257 -0.721976
2010-09-08 08:08:26 51°12.315 2°49.759 21.1303 0.075671 0.408264 -0.7568
2010-09-08 08:08:31 51°12.311 2°49.751 21.1328 0.075671 0.408264 -0.7568
2010-09-08 08:08:36 51°12.308 2°49.743 21.1327 0.075671 0.408264 -0.7568
2010-09-08 08:08:40 51°12.305 2°49.737 21.1368 0.075671 0.40827 -0.721976
2010-09-08 08:08:46 51°12.301 2°49.728 21.1345 0.075671 0.408277 -0.791624
2010-09-08 08:08:51 51°12.298 2°49.72 21.1323 0.075671 0.408277 -0.791624
2010-09-08 08:08:56 51°12.294 2°49.712 21.1419 0.075671 0.408277 -0.7568
2010-09-08 08:09:00 51°12.292 2°49.705 21.1429 0.075671 0.408277 -0.7568
2010-09-08 08:09:06 51°12.288 2°49.696 21.1458 0.075671 0.408277 -0.7568
2010-09-08 08:09:11 51°12.285 2°49.688 21.146 0.075671 0.408283 -0.7568
2010-09-08 08:09:16 51°12.281 2°49.68 21.1445 0.075671 0.40829 -0.7568
2010-09-08 08:09:20 51°12.279 2°49.674 21.1469 0.075671 0.408296 -0.7568
2010-09-08 08:09:26 51°12.275 2°49.664 21.1562 0.075671 0.408296 -0.7568
2010-09-08 08:09:31 51°12.271 2°49.656 21.1496 0.075671 0.408296 -0.7568
2010-09-08 08:09:36 51°12.268 2°49.649 21.1524 0.075671 0.408296 -0.7568
2010-09-08 08:09:40 51°12.265 2°49.642 21.1532 0.075671 0.408302 -0.721976
2010-09-08 08:09:46 51°12.261 2°49.632 21.1581 0.075671 0.408309 -0.7568
2010-09-08 08:09:51 51°12.258 2°49.625 21.1598 0.075671 0.408315 -0.7568
2010-09-08 08:09:56 51°12.255 2°49.617 21.1659 0.075671 0.408315 -0.7568
2010-09-08 08:10:00 51°12.252 2°49.61 21.1574 0.075671 0.408322 -0.7568
2010-09-08 08:10:06 51°12.248 2°49.601 21.1656 0.075671 0.408322 -0.7568
2010-09-08 08:10:11 51°12.244 2°49.593 21.1714 0.075671 0.408322 -0.7568
2010-09-08 08:10:16 51°12.241 2°49.585 21.1708 0.075671 0.408322 -0.7568
2010-09-08 08:10:21 51°12.238 2°49.577 21.175 0.075671 0.408328 -0.721976
2010-09-08 08:10:26 51°12.234 2°49.569 21.1794 0.075671 0.408335 -0.7568
2010-09-08 08:10:31 51°12.231 2°49.562 21.178 0.075671 0.408335 -0.7568
2010-09-08 08:10:36 51°12.228 2°49.554 21.1786 0.075671 0.408335 -0.7568
2010-09-08 08:10:40 51°12.225 2°49.547 21.1769 0.075671 0.408341 -0.791624